Observation data for Dell City 1N on 12/10/2018      Previous  Date       Current Mesonet Observations  Soil Data  Daily Summary Page  Observations in Plain Language
KDC1 100600Z 28003KT 02/01 A3038 RMK A01 T00170013  RH  097%=      5-min Rain = 0
KDC1 100601Z 28003KT 02/01 A3038 RMK A01 T00180013  RH  097%=      5-min Rain = 0
KDC1 100602Z 27003KT 02/01 A3038 RMK A01 T00170012  RH  097%=      5-min Rain = 0
KDC1 100603Z 27003KT 02/01 A3038 RMK A01 T00170011  RH  096%=      5-min Rain = 0
KDC1 100604Z 28005KT 02/01 A3038 RMK A01 T00160010  RH  096%=      5-min Rain = 0
KDC1 100605Z 28004KT 02/01 A3038 RMK A01 T00150008  RH  095%=      5-min Rain = 0
KDC1 100606Z 27004KT 01/01 A3038 RMK A01 T00140007  RH  095%=      5-min Rain = 0
KDC1 100607Z 28004KT 01/01 A3038 RMK A01 T00140007  RH  095%=      5-min Rain = 0
KDC1 100608Z 28005KT 01/01 A3038 RMK A01 T00140007  RH  095%=      5-min Rain = 0
KDC1 100609Z 28005KT 01/01 A3038 RMK A01 T00140006  RH  095%=      5-min Rain = 0
KDC1 100610Z 28005KT 01/00 A3038 RMK A01 T00130004  RH  094%=      5-min Rain = 0
KDC1 100611Z 29005KT 01/00 A3038 RMK A01 T00120003  RH  094%=      5-min Rain = 0
KDC1 100612Z 29006KT 01/00 A3038 RMK A01 T00120003  RH  094%=      5-min Rain = 0
KDC1 100613Z 29006KT 01/00 A3038 RMK A01 T00130003  RH  094%=      5-min Rain = 0
KDC1 100614Z 29006KT 01/00 A3038 RMK A01 T00130004  RH  093%=      5-min Rain = 0
KDC1 100615Z 29005KT 01/00 A3038 RMK A01 T00140004  RH  093%=      5-min Rain = 0
KDC1 100616Z 29005KT 02/00 A3038 RMK A01 T00150003  RH  092%=      5-min Rain = 0
KDC1 100617Z 30005KT 02/00 A3038 RMK A01 T00150003  RH  092%=      5-min Rain = 0
KDC1 100618Z 30005KT 01/00 A3038 RMK A01 T00140001  RH  092%=      5-min Rain = 0
KDC1 100619Z 31006KT 01/00 A3038 RMK A01 T001200-0  RH  091%=      5-min Rain = 0
KDC1 100620Z 31005KT 01/M00 A3038 RMK A01 T00111002  RH  091%=      5-min Rain = 0
KDC1 100621Z 31005KT 01/M00 A3038 RMK A01 T00101002  RH  091%=      5-min Rain = 0
KDC1 100622Z 32005KT 01/M00 A3038 RMK A01 T00091003  RH  092%=      5-min Rain = 0
KDC1 100623Z 33005KT 01/M00 A3038 RMK A01 T00081003  RH  092%=      5-min Rain = 0
KDC1 100624Z 34004KT 01/M00 A3038 RMK A01 T00081002  RH  093%=      5-min Rain = 0
KDC1 100625Z 35004KT 01/M00 A3038 RMK A01 T00091001  RH  093%=      5-min Rain = 0
KDC1 100626Z 34004KT 01/M00 A3038 RMK A01 T00091001  RH  093%=      5-min Rain = 0
KDC1 100627Z 33004KT 01/00 A3038 RMK A01 T00090000  RH  094%=      5-min Rain = 0
KDC1 100628Z 32004KT 01/00 A3038 RMK A01 T00100000  RH  094%=      5-min Rain = 0
KDC1 100629Z 32003KT 01/00 A3038 RMK A01 T00100000  RH  093%=      5-min Rain = 0
KDC1 100630Z 31004KT 01/M00 A3037 RMK A01 T00091001  RH  093%=      5-min Rain = 0
KDC1 100631Z 30004KT 01/M00 A3037 RMK A01 T00071003  RH  093%=      5-min Rain = 0
KDC1 100632Z 30004KT 01/M00 A3037 RMK A01 T00061004  RH  093%=      5-min Rain = 0
KDC1 100633Z 30005KT 01/M01 A3037 RMK A01 T00051005  RH  093%=      5-min Rain = 0
KDC1 100634Z 32004KT 00/M01 A3037 RMK A01 T00041006  RH  093%=      5-min Rain = 0
KDC1 100635Z 33003KT 00/M01 A3037 RMK A01 T00031006  RH  093%=      5-min Rain = 0
KDC1 100636Z 34003KT 00/M01 A3038 RMK A01 T00031006  RH  094%=      5-min Rain = 0
KDC1 100637Z 34003KT 00/M01 A3038 RMK A01 T00031006  RH  094%=      5-min Rain = 0
KDC1 100638Z 33003KT 00/M01 A3038 RMK A01 T00031006  RH  094%=      5-min Rain = 0
KDC1 100639Z 33003KT 00/M01 A3037 RMK A01 T00031006  RH  094%=      5-min Rain = 0
KDC1 100640Z 32003KT 00/M01 A3037 RMK A01 T00031005  RH  095%=      5-min Rain = 0
KDC1 100641Z 33003KT 00/M00 A3037 RMK A01 T00041003  RH  095%=      5-min Rain = 0
KDC1 100642Z 33004KT 01/M00 A3037 RMK A01 T00061001  RH  095%=      5-min Rain = 0
KDC1 100643Z 33004KT 01/00 A3037 RMK A01 T000700-0  RH  095%=      5-min Rain = 0
KDC1 100644Z 32004KT 01/00 A3037 RMK A01 T00080001  RH  095%=      5-min Rain = 0
KDC1 100645Z 32004KT 01/00 A3037 RMK A01 T000800-0  RH  094%=      5-min Rain = 0
KDC1 100646Z 32004KT 01/M00 A3037 RMK A01 T00061002  RH  094%=      5-min Rain = 0
KDC1 100647Z 33004KT 01/M00 A3037 RMK A01 T00051004  RH  094%=      5-min Rain = 0
KDC1 100648Z 33004KT 01/M00 A3037 RMK A01 T00051004  RH  094%=      5-min Rain = 0
KDC1 100649Z 33003KT 01/M00 A3037 RMK A01 T00051004  RH  094%=      5-min Rain = 0
KDC1 100650Z 34004KT 01/M00 A3037 RMK A01 T00051004  RH  094%=      5-min Rain = 0
KDC1 100651Z 34004KT 01/M00 A3037 RMK A01 T00051004  RH  094%=      5-min Rain = 0
KDC1 100652Z 35005KT 01/M00 A3037 RMK A01 T00051004  RH  094%=      5-min Rain = 0
KDC1 100653Z 35006KT 01/M00 A3037 RMK A01 T00051004  RH  094%=      5-min Rain = 0
KDC1 100654Z 36006KT 01/M00 A3037 RMK A01 T00061003  RH  094%=      5-min Rain = 0
KDC1 100655Z 35006KT 01/M00 A3037 RMK A01 T00061002  RH  094%=      5-min Rain = 0
KDC1 100656Z 35005KT 01/M00 A3037 RMK A01 T00081001  RH  094%=      5-min Rain = 0
KDC1 100657Z 35006KT 01/M00 A3037 RMK A01 T00091001  RH  093%=      5-min Rain = 0
KDC1 100658Z 34006KT 01/M00 A3037 RMK A01 T00101001  RH  093%=      5-min Rain = 0
KDC1 100659Z 34006KT 01/M00 A3037 RMK A01 T00101002  RH  092%=      5-min Rain = 0
KDC1 100700Z 34006KT 01/M00 A3037 RMK A01 T00101003  RH  092%=      5-min Rain = 0
KDC1 100701Z 34006KT 01/M00 A3037 RMK A01 T00091003  RH  091%=      5-min Rain = 0
KDC1 100702Z 34006KT 01/M00 A3037 RMK A01 T00091003  RH  091%=      5-min Rain = 0
KDC1 100703Z 34006KT 01/M00 A3037 RMK A01 T00091003  RH  091%=      5-min Rain = 0
KDC1 100704Z 34006KT 01/M00 A3037 RMK A01 T00091004  RH  091%=      5-min Rain = 0
KDC1 100705Z 34006KT 01/M00 A3037 RMK A01 T00091004  RH  091%=      5-min Rain = 0
KDC1 100706Z 34005KT 01/M00 A3037 RMK A01 T00091004  RH  091%=      5-min Rain = 0
KDC1 100707Z 34005KT 01/M00 A3037 RMK A01 T00091004  RH  091%=      5-min Rain = 0
KDC1 100708Z 34005KT 01/M00 A3037 RMK A01 T00091004  RH  091%=      5-min Rain = 0
KDC1 100709Z 34005KT 01/M00 A3037 RMK A01 T00091004  RH  091%=      5-min Rain = 0
KDC1 100710Z 34004KT 01/M00 A3037 RMK A01 T00091004  RH  091%=      5-min Rain = 0
KDC1 100711Z 34003KT 01/M01 A3037 RMK A01 T00091005  RH  091%=      5-min Rain = 0
KDC1 100712Z 34003KT 01/M01 A3037 RMK A01 T00081005  RH  091%=      5-min Rain = 0
KDC1 100713Z 34003KT 01/M01 A3037 RMK A01 T00081005  RH  091%=      5-min Rain = 0
KDC1 100714Z 33003KT 01/M01 A3037 RMK A01 T00081005  RH  091%=      5-min Rain = 0
KDC1 100715Z 32003KT 01/M01 A3037 RMK A01 T00081005  RH  091%=      5-min Rain = 0
KDC1 100716Z 31003KT 01/M00 A3037 RMK A01 T00091004  RH  091%=      5-min Rain = 0
KDC1 100717Z 30004KT 01/M00 A3037 RMK A01 T00091004  RH  091%=      5-min Rain = 0
KDC1 100718Z 30005KT 01/M00 A3037 RMK A01 T00101003  RH  091%=      5-min Rain = 0
KDC1 100719Z 30005KT 01/M00 A3037 RMK A01 T00101003  RH  091%=      5-min Rain = 0
KDC1 100720Z 31005KT 01/M00 A3037 RMK A01 T00111003  RH  090%=      5-min Rain = 0
KDC1 100721Z 31006KT 01/M00 A3037 RMK A01 T00111004  RH  090%=      5-min Rain = 0
KDC1 100722Z 31006KT 01/M01 A3037 RMK A01 T00101005  RH  090%=      5-min Rain = 0
KDC1 100723Z 32006KT 01/M01 A3037 RMK A01 T00091005  RH  090%=      5-min Rain = 0
KDC1 100724Z 32006KT 01/M01 A3037 RMK A01 T00081006  RH  090%=      5-min Rain = 0
KDC1 100725Z 32006KT 01/M01 A3037 RMK A01 T00081006  RH  091%=      5-min Rain = 0
KDC1 100726Z 32006KT 01/M01 A3037 RMK A01 T00081005  RH  091%=      5-min Rain = 0
KDC1 100727Z 33006KT 01/M01 A3037 RMK A01 T00071005  RH  091%=      5-min Rain = 0
KDC1 100728Z 33006KT 01/M01 A3037 RMK A01 T00071005  RH  091%=      5-min Rain = 0
KDC1 100729Z 33005KT 01/M01 A3037 RMK A01 T00071006  RH  091%=      5-min Rain = 0
KDC1 100730Z 32006KT 01/M01 A3037 RMK A01 T00071006  RH  091%=      5-min Rain = 0
KDC1 100731Z 33006KT 01/M01 A3037 RMK A01 T00061007  RH  091%=      5-min Rain = 0
KDC1 100732Z 33007KT 01/M01 A3037 RMK A01 T00051007  RH  092%=      5-min Rain = 0
KDC1 100733Z 33008KT 01/M01 A3037 RMK A01 T00051007  RH  092%=      5-min Rain = 0
KDC1 100734Z 33008KT 01/M01 A3037 RMK A01 T00051006  RH  092%=      5-min Rain = 0
KDC1 100735Z 33007KT 01/M01 A3037 RMK A01 T00051005  RH  093%=      5-min Rain = 0
KDC1 100736Z 33007KT 01/M00 A3037 RMK A01 T00061004  RH  093%=      5-min Rain = 0
KDC1 100737Z 33005KT 01/M00 A3037 RMK A01 T00071004  RH  093%=      5-min Rain = 0
KDC1 100738Z 33005KT 01/M00 A3037 RMK A01 T00071004  RH  092%=      5-min Rain = 0
KDC1 100739Z 32003KT 01/M01 A3037 RMK A01 T00061005  RH  092%=      5-min Rain = 0
KDC1 100740Z 31003KT 01/M01 A3037 RMK A01 T00051007  RH  092%=      5-min Rain = 0
KDC1 100741Z 29003KT 00/M01 A3037 RMK A01 T00031009  RH  092%=      5-min Rain = 0
KDC1 100742Z 30003KT 00/M01 A3037 RMK A01 T00021010  RH  092%=      5-min Rain = 0
KDC1 100743Z 31003KT 00/M01 A3037 RMK A01 T00011010  RH  092%=      5-min Rain = 0
KDC1 100744Z 30003KT 00/01 A3037 RMK A01 T00000-10  RH  093%=      5-min Rain = 0
KDC1 100745Z 30003KT 00/01 A3037 RMK A01 T00-00-10  RH  093%=      5-min Rain = 0
KDC1 100746Z 30003KT M00/M01 A3037 RMK A01 T10011010  RH  093%=      5-min Rain = 0
KDC1 100747Z 30003KT M00/M01 A3037 RMK A01 T10011010  RH  094%=      5-min Rain = 0
KDC1 100748Z 29002KT M00/M01 A3037 RMK A01 T10011009  RH  094%=      5-min Rain = 0
KDC1 100749Z 29001KT M00/M01 A3037 RMK A01 T10011009  RH  094%=      5-min Rain = 0
KDC1 100750Z 27001KT M00/M01 A3037 RMK A01 T10011009  RH  094%=      5-min Rain = 0
KDC1 100751Z 25001KT M00/M01 A3037 RMK A01 T10011010  RH  094%=      5-min Rain = 0
KDC1 100752Z 23001KT M00/M01 A3037 RMK A01 T10011009  RH  094%=      5-min Rain = 0
KDC1 100753Z 24001KT M00/M01 A3037 RMK A01 T10011008  RH  095%=      5-min Rain = 0
KDC1 100754Z 25002KT 00/01 A3037 RMK A01 T00-000-8  RH  095%=      5-min Rain = 0
KDC1 100755Z 27002KT 00/01 A3037 RMK A01 T00-000-7  RH  095%=      5-min Rain = 0
KDC1 100756Z 27002KT 00/01 A3037 RMK A01 T000000-7  RH  095%=      5-min Rain = 0
KDC1 100757Z 28001KT 00/M01 A3037 RMK A01 T00011006  RH  095%=      5-min Rain = 0
KDC1 100758Z 31000KT 00/M01 A3037 RMK A01 T00011006  RH  095%=      5-min Rain = 0
KDC1 100759Z 33001KT 00/M01 A3037 RMK A01 T00011006  RH  095%=      5-min Rain = 0
KDC1 100800Z 34001KT 00/M01 A3037 RMK A01 T00011007  RH  095%=      5-min Rain = 0
KDC1 100801Z 32000KT 00/M01 A3037 RMK A01 T00011007  RH  095%=      5-min Rain = 0
KDC1 100802Z 31000KT 00/M01 A3037 RMK A01 T00011007  RH  095%=      5-min Rain = 0
KDC1 100803Z 27000KT 00/M01 A3037 RMK A01 T00011007  RH  095%=      5-min Rain = 0
KDC1 100804Z 26001KT 00/01 A3037 RMK A01 T00-000-8  RH  094%=      5-min Rain = 0
KDC1 100805Z 26002KT 00/01 A3037 RMK A01 T00-000-8  RH  094%=      5-min Rain = 0
KDC1 100806Z 26002KT 00/01 A3037 RMK A01 T00-000-8  RH  094%=      5-min Rain = 0
KDC1 100807Z 25002KT 00/01 A3037 RMK A01 T00-000-8  RH  095%=      5-min Rain = 0
KDC1 100808Z 24001KT 00/01 A3037 RMK A01 T00-000-8  RH  095%=      5-min Rain = 0
KDC1 100809Z 23001KT 00/01 A3037 RMK A01 T00-000-8  RH  095%=      5-min Rain = 0
KDC1 100810Z 23001KT 00/01 A3037 RMK A01 T00-000-8  RH  095%=      5-min Rain = 0
KDC1 100811Z 24001KT 00/01 A3037 RMK A01 T00-000-7  RH  095%=      5-min Rain = 0
KDC1 100812Z 24001KT 00/01 A3037 RMK A01 T00-000-7  RH  095%=      5-min Rain = 0
KDC1 100813Z 25002KT 00/01 A3037 RMK A01 T00-000-8  RH  095%=      5-min Rain = 0
KDC1 100814Z 25002KT 00/01 A3037 RMK A01 T00-000-8  RH  095%=      5-min Rain = 0
KDC1 100815Z 24001KT 00/01 A3037 RMK A01 T00-000-8  RH  095%=      5-min Rain = 0
KDC1 100816Z 14001KT M00/M01 A3037 RMK A01 T10021009  RH  095%=      5-min Rain = 0
KDC1 100817Z 15002KT M00/M01 A3037 RMK A01 T10041012  RH  094%=      5-min Rain = 0
KDC1 100818Z 18002KT M00/M01 A3037 RMK A01 T10041011  RH  095%=      5-min Rain = 0
KDC1 100819Z 15001KT M00/M01 A3037 RMK A01 T10031010  RH  095%=      5-min Rain = 0
KDC1 100820Z 13001KT M00/M01 A3037 RMK A01 T10041011  RH  095%=      5-min Rain = 0
KDC1 100821Z 00000KT M01/M01 A3037 RMK A01 T10051013  RH  095%=      5-min Rain = 0
KDC1 100822Z 14000KT M01/M01 A3037 RMK A01 T10051013  RH  095%=      5-min Rain = 0
KDC1 100823Z 14001KT M01/M01 A3037 RMK A01 T10061013  RH  095%=      5-min Rain = 0
KDC1 100824Z 00000KT M01/M01 A3037 RMK A01 T10061014  RH  095%=      5-min Rain = 0
KDC1 100825Z 10000KT M01/M01 A3037 RMK A01 T10071014  RH  095%=      5-min Rain = 0
KDC1 100826Z 10001KT M01/M01 A3037 RMK A01 T10071014  RH  095%=      5-min Rain = 0
KDC1 100827Z 10000KT M01/M01 A3037 RMK A01 T10061012  RH  096%=      5-min Rain = 0
KDC1 100828Z 12000KT M01/M01 A3037 RMK A01 T10051011  RH  096%=      5-min Rain = 0
KDC1 100829Z 13001KT M01/M01 A3037 RMK A01 T10051011  RH  096%=      5-min Rain = 0
KDC1 100830Z 15001KT M01/M01 A3037 RMK A01 T10051011  RH  096%=      5-min Rain = 0
KDC1 100831Z 14001KT M01/M01 A3037 RMK A01 T10051010  RH  096%=      5-min Rain = 0
KDC1 100832Z 13000KT M00/M01 A3037 RMK A01 T10041010  RH  096%=      5-min Rain = 0
KDC1 100833Z 13001KT M00/M01 A3037 RMK A01 T10041010  RH  096%=      5-min Rain = 0
KDC1 100834Z 13000KT M00/M01 A3038 RMK A01 T10041010  RH  096%=      5-min Rain = 0
KDC1 100835Z 00000KT M00/M01 A3038 RMK A01 T10041009  RH  096%=      5-min Rain = 0
KDC1 100836Z 00000KT M00/M01 A3038 RMK A01 T10041010  RH  096%=      5-min Rain = 0
KDC1 100837Z 00000KT M00/M01 A3038 RMK A01 T10041010  RH  096%=      5-min Rain = 0
KDC1 100838Z 00000KT M00/M01 A3038 RMK A01 T10041009  RH  096%=      5-min Rain = 0
KDC1 100839Z 23001KT M00/M01 A3037 RMK A01 T10031008  RH  096%=      5-min Rain = 0
KDC1 100840Z 24001KT M00/M01 A3037 RMK A01 T10031008  RH  096%=      5-min Rain = 0
KDC1 100841Z 24001KT M00/M01 A3037 RMK A01 T10031008  RH  096%=      5-min Rain = 0
KDC1 100842Z 25001KT M00/M01 A3037 RMK A01 T10031008  RH  096%=      5-min Rain = 0
KDC1 100843Z 26001KT M00/M01 A3037 RMK A01 T10031008  RH  096%=      5-min Rain = 0
KDC1 100844Z 26002KT M00/M01 A3037 RMK A01 T10031008  RH  096%=      5-min Rain = 0
KDC1 100845Z 26002KT M00/M01 A3037 RMK A01 T10031008  RH  096%=      5-min Rain = 0
KDC1 100846Z 27002KT M00/M01 A3037 RMK A01 T10031009  RH  096%=      5-min Rain = 0
KDC1 100847Z 26002KT M00/M01 A3037 RMK A01 T10031009  RH  096%=      5-min Rain = 0
KDC1 100848Z 25002KT M00/M01 A3037 RMK A01 T10031008  RH  096%=      5-min Rain = 0
KDC1 100849Z 25002KT M00/M01 A3037 RMK A01 T10031008  RH  096%=      5-min Rain = 0
KDC1 100850Z 25002KT M00/M01 A3037 RMK A01 T10031008  RH  096%=      5-min Rain = 0
KDC1 100851Z 25002KT M00/M01 A3037 RMK A01 T10031008  RH  096%=      5-min Rain = 0
KDC1 100852Z 25002KT M00/M01 A3038 RMK A01 T10031008  RH  096%=      5-min Rain = 0
KDC1 100853Z 26002KT M00/M01 A3038 RMK A01 T10021008  RH  096%=      5-min Rain = 0
KDC1 100854Z 26003KT M00/M01 A3038 RMK A01 T10031008  RH  096%=      5-min Rain = 0
KDC1 100855Z 26003KT M00/M01 A3038 RMK A01 T10031008  RH  096%=      5-min Rain = 0
KDC1 100856Z 26003KT M00/M01 A3037 RMK A01 T10031009  RH  096%=      5-min Rain = 0
KDC1 100857Z 26003KT M00/M01 A3037 RMK A01 T10021009  RH  096%=      5-min Rain = 0
KDC1 100858Z 27003KT M00/M01 A3037 RMK A01 T10031009  RH  095%=      5-min Rain = 0
KDC1 100859Z 27003KT M00/M01 A3037 RMK A01 T10031009  RH  095%=      5-min Rain = 0
KDC1 100900Z 27003KT M00/M01 A3037 RMK A01 T10031010  RH  095%=      5-min Rain = 0
KDC1 100901Z 27003KT M00/M01 A3037 RMK A01 T10041012  RH  095%=      5-min Rain = 0
KDC1 100902Z 27003KT M01/M01 A3037 RMK A01 T10051012  RH  095%=      5-min Rain = 0
KDC1 100903Z 28003KT M01/M01 A3037 RMK A01 T10061013  RH  095%=      5-min Rain = 0
KDC1 100904Z 28004KT M01/M01 A3037 RMK A01 T10061013  RH  095%=      5-min Rain = 0
KDC1 100905Z 28004KT M01/M01 A3037 RMK A01 T10071014  RH  095%=      5-min Rain = 0
KDC1 100906Z 28004KT M01/M01 A3037 RMK A01 T10071014  RH  095%=      5-min Rain = 0
KDC1 100907Z 28004KT M01/M02 A3037 RMK A01 T10081015  RH  095%=      5-min Rain = 0
KDC1 100908Z 29004KT M01/M02 A3038 RMK A01 T10081015  RH  095%=      5-min Rain = 0
KDC1 100909Z 29003KT M01/M02 A3038 RMK A01 T10081015  RH  095%=      5-min Rain = 0
KDC1 100910Z 29003KT M01/M02 A3037 RMK A01 T10091015  RH  096%=      5-min Rain = 0
KDC1 100911Z 29003KT M01/M02 A3037 RMK A01 T10091015  RH  096%=      5-min Rain = 0
KDC1 100912Z 30003KT M01/M02 A3037 RMK A01 T10091015  RH  096%=      5-min Rain = 0
KDC1 100913Z 30003KT M01/M02 A3037 RMK A01 T10091015  RH  096%=      5-min Rain = 0
KDC1 100914Z 30003KT M01/M02 A3037 RMK A01 T10091015  RH  096%=      5-min Rain = 0
KDC1 100915Z 30003KT M01/M02 A3037 RMK A01 T10091015  RH  096%=      5-min Rain = 0
KDC1 100916Z 30003KT M01/M02 A3037 RMK A01 T10091015  RH  096%=      5-min Rain = 0
KDC1 100917Z 31003KT M01/M02 A3037 RMK A01 T10101016  RH  096%=      5-min Rain = 0
KDC1 100918Z 31002KT M01/M02 A3037 RMK A01 T10101016  RH  096%=      5-min Rain = 0
KDC1 100919Z 30002KT M01/M02 A3037 RMK A01 T10101016  RH  096%=      5-min Rain = 0
KDC1 100920Z 30003KT M01/M02 A3037 RMK A01 T10101016  RH  096%=      5-min Rain = 0
KDC1 100921Z 30003KT M01/M02 A3037 RMK A01 T10111017  RH  096%=      5-min Rain = 0
KDC1 100922Z 30002KT M01/M02 A3037 RMK A01 T10111017  RH  096%=      5-min Rain = 0
KDC1 100923Z 30002KT M01/M02 A3037 RMK A01 T10111017  RH  096%=      5-min Rain = 0
KDC1 100924Z 30003KT M01/M02 A3037 RMK A01 T10111017  RH  096%=      5-min Rain = 0
KDC1 100925Z 30003KT M01/M02 A3037 RMK A01 T10111017  RH  096%=      5-min Rain = 0
KDC1 100926Z 30003KT M01/M02 A3037 RMK A01 T10111017  RH  096%=      5-min Rain = 0
KDC1 100927Z 30003KT M01/M02 A3037 RMK A01 T10111017  RH  096%=      5-min Rain = 0
KDC1 100928Z 30003KT M01/M02 A3037 RMK A01 T10111017  RH  096%=      5-min Rain = 0
KDC1 100929Z 30003KT M01/M02 A3037 RMK A01 T10111017  RH  096%=      5-min Rain = 0
KDC1 100930Z 30003KT M01/M02 A3037 RMK A01 T10111017  RH  096%=      5-min Rain = 0
KDC1 100931Z 29003KT M01/M02 A3037 RMK A01 T10121018  RH  096%=      5-min Rain = 0
KDC1 100932Z 29003KT M01/M02 A3037 RMK A01 T10121018  RH  096%=      5-min Rain = 0
KDC1 100933Z 29003KT M01/M02 A3037 RMK A01 T10121018  RH  096%=      5-min Rain = 0
KDC1 100934Z 29003KT M01/M02 A3037 RMK A01 T10121018  RH  096%=      5-min Rain = 0
KDC1 100935Z 29003KT M01/M02 A3037 RMK A01 T10121018  RH  096%=      5-min Rain = 0
KDC1 100936Z 29003KT M01/M02 A3037 RMK A01 T10121018  RH  096%=      5-min Rain = 0
KDC1 100937Z 29003KT M01/M02 A3037 RMK A01 T10121018  RH  096%=      5-min Rain = 0
KDC1 100938Z 28003KT M01/M02 A3037 RMK A01 T10121017  RH  096%=      5-min Rain = 0
KDC1 100939Z 28003KT M01/M02 A3037 RMK A01 T10111016  RH  096%=      5-min Rain = 0
KDC1 100940Z 28003KT M01/M02 A3037 RMK A01 T10101015  RH  097%=      5-min Rain = 0
KDC1 100941Z 28003KT M01/M01 A3037 RMK A01 T10101014  RH  097%=      5-min Rain = 0
KDC1 100942Z 28003KT M01/M01 A3037 RMK A01 T10091013  RH  097%=      5-min Rain = 0
KDC1 100943Z 27003KT M01/M01 A3037 RMK A01 T10081012  RH  097%=      5-min Rain = 0
KDC1 100944Z 27003KT M01/M01 A3037 RMK A01 T10071012  RH  097%=      5-min Rain = 0
KDC1 100945Z 27003KT M01/M01 A3037 RMK A01 T10071011  RH  097%=      5-min Rain = 0
KDC1 100946Z 26003KT M01/M01 A3037 RMK A01 T10071011  RH  097%=      5-min Rain = 0
KDC1 100947Z 25002KT M01/M01 A3037 RMK A01 T10071011  RH  097%=      5-min Rain = 0
KDC1 100948Z 25001KT M01/M01 A3037 RMK A01 T10071012  RH  097%=      5-min Rain = 0
KDC1 100949Z 26001KT M01/M02 A3037 RMK A01 T10101015  RH  096%=      5-min Rain = 0
KDC1 100950Z 27002KT M01/M02 A3037 RMK A01 T10101016  RH  096%=      5-min Rain = 0
KDC1 100951Z 27002KT M01/M02 A3037 RMK A01 T10101016  RH  096%=      5-min Rain = 0
KDC1 100952Z 28002KT M01/M01 A3037 RMK A01 T10101014  RH  097%=      5-min Rain = 0
KDC1 100953Z 28002KT M01/M01 A3037 RMK A01 T10091013  RH  097%=      5-min Rain = 0
KDC1 100954Z 29002KT M01/M01 A3037 RMK A01 T10081013  RH  097%=      5-min Rain = 0
KDC1 100955Z 29002KT M01/M01 A3037 RMK A01 T10081013  RH  097%=      5-min Rain = 0
KDC1 100956Z 29002KT M01/M01 A3037 RMK A01 T10081013  RH  097%=      5-min Rain = 0
KDC1 100957Z 29002KT M01/M01 A3037 RMK A01 T10081013  RH  097%=      5-min Rain = 0
KDC1 100958Z 29003KT M01/M01 A3037 RMK A01 T10091014  RH  096%=      5-min Rain = 0
KDC1 100959Z 29003KT M01/M01 A3037 RMK A01 T10091014  RH  096%=      5-min Rain = 0
KDC1 101000Z 29004KT M01/M01 A3037 RMK A01 T10091014  RH  096%=      5-min Rain = 0
KDC1 101001Z 29003KT M01/M01 A3037 RMK A01 T10091013  RH  097%=      5-min Rain = 0
KDC1 101002Z 29003KT M01/M01 A3037 RMK A01 T10081013  RH  097%=      5-min Rain = 0
KDC1 101003Z 29003KT M01/M01 A3037 RMK A01 T10081013  RH  096%=      5-min Rain = 0
KDC1 101004Z 28004KT M01/M01 A3037 RMK A01 T10091014  RH  096%=      5-min Rain = 0
KDC1 101005Z 28004KT M01/M01 A3037 RMK A01 T10091014  RH  096%=      5-min Rain = 0
KDC1 101006Z 28004KT M01/M01 A3037 RMK A01 T10091014  RH  096%=      5-min Rain = 0
KDC1 101007Z 28004KT M01/M01 A3037 RMK A01 T10081013  RH  096%=      5-min Rain = 0
KDC1 101008Z 28004KT M01/M01 A3037 RMK A01 T10091013  RH  096%=      5-min Rain = 0
KDC1 101009Z 28004KT M01/M01 A3037 RMK A01 T10091014  RH  096%=      5-min Rain = 0
KDC1 101010Z 28003KT M01/M01 A3037 RMK A01 T10091014  RH  096%=      5-min Rain = 0
KDC1 101011Z 29003KT M01/M01 A3037 RMK A01 T10091014  RH  096%=      5-min Rain = 0
KDC1 101012Z 29004KT M01/M01 A3037 RMK A01 T10091014  RH  096%=      5-min Rain = 0
KDC1 101013Z 29004KT M01/M01 A3037 RMK A01 T10091014  RH  096%=      5-min Rain = 0
KDC1 101014Z 28004KT M01/M02 A3037 RMK A01 T10101015  RH  096%=      5-min Rain = 0
KDC1 101015Z 28005KT M01/M02 A3037 RMK A01 T10101015  RH  096%=      5-min Rain = 0
KDC1 101016Z 27005KT M01/M02 A3037 RMK A01 T10101015  RH  096%=      5-min Rain = 0
KDC1 101017Z 28005KT M01/M02 A3037 RMK A01 T10101015  RH  096%=      5-min Rain = 0
KDC1 101018Z 28005KT M01/M02 A3037 RMK A01 T10101015  RH  097%=      5-min Rain = 0
KDC1 101019Z 28004KT M01/M01 A3037 RMK A01 T10091014  RH  097%=      5-min Rain = 0
KDC1 101020Z 28004KT M01/M01 A3037 RMK A01 T10091013  RH  097%=      5-min Rain = 0
KDC1 101021Z 28004KT M01/M01 A3037 RMK A01 T10081013  RH  097%=      5-min Rain = 0
KDC1 101022Z 28003KT M01/M01 A3037 RMK A01 T10081012  RH  097%=      5-min Rain = 0
KDC1 101023Z 29003KT M01/M01 A3037 RMK A01 T10071012  RH  097%=      5-min Rain = 0
KDC1 101024Z 29003KT M01/M01 A3037 RMK A01 T10071012  RH  097%=      5-min Rain = 0
KDC1 101025Z 29004KT M01/M01 A3037 RMK A01 T10071012  RH  097%=      5-min Rain = 0
KDC1 101026Z 29004KT M01/M01 A3037 RMK A01 T10071012  RH  096%=      5-min Rain = 0
KDC1 101027Z 29004KT M01/M01 A3037 RMK A01 T10061012  RH  096%=      5-min Rain = 0
KDC1 101028Z 29004KT M01/M01 A3037 RMK A01 T10061012  RH  096%=      5-min Rain = 0
KDC1 101029Z 29003KT M01/M01 A3037 RMK A01 T10061012  RH  096%=      5-min Rain = 0
KDC1 101030Z 29003KT M01/M01 A3037 RMK A01 T10061012  RH  096%=      5-min Rain = 0
KDC1 101031Z 28003KT M01/M01 A3037 RMK A01 T10061012  RH  096%=      5-min Rain = 0
KDC1 101032Z 28003KT M01/M01 A3037 RMK A01 T10061012  RH  096%=      5-min Rain = 0
KDC1 101033Z 28003KT M01/M01 A3037 RMK A01 T10061012  RH  096%=      5-min Rain = 0
KDC1 101034Z 28003KT M01/M01 A3037 RMK A01 T10061012  RH  096%=      5-min Rain = 0
KDC1 101035Z 28003KT M01/M01 A3037 RMK A01 T10061013  RH  096%=      5-min Rain = 0
KDC1 101036Z 28003KT M01/M01 A3037 RMK A01 T10061012  RH  096%=      5-min Rain = 0
KDC1 101037Z 28003KT M01/M01 A3037 RMK A01 T10061013  RH  095%=      5-min Rain = 0
KDC1 101038Z 28003KT M01/M01 A3037 RMK A01 T10061013  RH  095%=      5-min Rain = 0
KDC1 101039Z 28004KT M01/M01 A3037 RMK A01 T10061013  RH  095%=      5-min Rain = 0
KDC1 101040Z 28004KT M01/M01 A3037 RMK A01 T10061013  RH  095%=      5-min Rain = 0
KDC1 101041Z 27004KT M01/M01 A3037 RMK A01 T10061013  RH  095%=      5-min Rain = 0
KDC1 101042Z 27003KT M01/M01 A3037 RMK A01 T10061013  RH  095%=      5-min Rain = 0
KDC1 101043Z 27003KT M01/M01 A3037 RMK A01 T10061013  RH  095%=      5-min Rain = 0
KDC1 101044Z 27003KT M01/M01 A3037 RMK A01 T10061013  RH  095%=      5-min Rain = 0
KDC1 101045Z 27003KT M01/M01 A3037 RMK A01 T10061013  RH  095%=      5-min Rain = 0
KDC1 101046Z 27003KT M01/M01 A3037 RMK A01 T10061014  RH  095%=      5-min Rain = 0
KDC1 101047Z 27003KT M01/M01 A3037 RMK A01 T10061014  RH  095%=      5-min Rain = 0
KDC1 101048Z 28004KT M01/M01 A3037 RMK A01 T10071014  RH  095%=      5-min Rain = 0
KDC1 101049Z 28003KT M01/M01 A3037 RMK A01 T10071014  RH  095%=      5-min Rain = 0
KDC1 101050Z 29003KT M01/M02 A3037 RMK A01 T10071015  RH  095%=      5-min Rain = 0
KDC1 101051Z 29003KT M01/M02 A3037 RMK A01 T10071015  RH  095%=      5-min Rain = 0
KDC1 101052Z 29003KT M01/M02 A3037 RMK A01 T10071015  RH  095%=      5-min Rain = 0
KDC1 101053Z 28002KT M01/M02 A3037 RMK A01 T10071015  RH  095%=      5-min Rain = 0
KDC1 101054Z 28002KT M01/M02 A3037 RMK A01 T10081015  RH  095%=      5-min Rain = 0
KDC1 101055Z 28002KT M01/M02 A3037 RMK A01 T10081016  RH  095%=      5-min Rain = 0
KDC1 101056Z 28003KT M01/M02 A3037 RMK A01 T10071015  RH  095%=      5-min Rain = 0
KDC1 101057Z 29002KT M01/M02 A3037 RMK A01 T10071015  RH  095%=      5-min Rain = 0
KDC1 101058Z 29003KT M01/M02 A3037 RMK A01 T10071015  RH  095%=      5-min Rain = 0
KDC1 101059Z 29003KT M01/M02 A3037 RMK A01 T10081015  RH  095%=      5-min Rain = 0
KDC1 101100Z 30002KT M01/M02 A3037 RMK A01 T10081016  RH  095%=      5-min Rain = 0
KDC1 101101Z 30002KT M01/M02 A3037 RMK A01 T10081016  RH  094%=      5-min Rain = 0
KDC1 101102Z 31002KT M01/M02 A3037 RMK A01 T10091017  RH  094%=      5-min Rain = 0
KDC1 101103Z 31002KT M01/M02 A3037 RMK A01 T10091017  RH  094%=      5-min Rain = 0
KDC1 101104Z 30002KT M01/M02 A3037 RMK A01 T10091017  RH  095%=      5-min Rain = 0
KDC1 101105Z 30002KT M01/M02 A3037 RMK A01 T10091017  RH  095%=      5-min Rain = 0
KDC1 101106Z 29002KT M01/M02 A3037 RMK A01 T10091017  RH  095%=      5-min Rain = 0
KDC1 101107Z 29002KT M01/M02 A3037 RMK A01 T10101017  RH  095%=      5-min Rain = 0
KDC1 101108Z 30002KT M01/M02 A3037 RMK A01 T10101017  RH  095%=      5-min Rain = 0
KDC1 101109Z 31002KT M01/M02 A3037 RMK A01 T10101018  RH  095%=      5-min Rain = 0
KDC1 101110Z 32002KT M01/M02 A3037 RMK A01 T10111018  RH  095%=      5-min Rain = 0
KDC1 101111Z 33002KT M01/M02 A3037 RMK A01 T10111018  RH  095%=      5-min Rain = 0
KDC1 101112Z 33003KT M01/M02 A3037 RMK A01 T10121019  RH  095%=      5-min Rain = 0
KDC1 101113Z 33003KT M01/M02 A3037 RMK A01 T10121019  RH  095%=      5-min Rain = 0
KDC1 101114Z 33003KT M01/M02 A3036 RMK A01 T10131020  RH  095%=      5-min Rain = 0
KDC1 101115Z 34004KT M01/M02 A3036 RMK A01 T10131020  RH  095%=      5-min Rain = 0
KDC1 101116Z 34004KT M01/M02 A3036 RMK A01 T10131020  RH  095%=      5-min Rain = 0
KDC1 101117Z 35003KT M01/M02 A3036 RMK A01 T10131019  RH  095%=      5-min Rain = 0
KDC1 101118Z 35003KT M01/M02 A3036 RMK A01 T10131019  RH  095%=      5-min Rain = 0
KDC1 101119Z 35003KT M01/M02 A3036 RMK A01 T10121019  RH  095%=      5-min Rain = 0
KDC1 101120Z 35003KT M01/M02 A3036 RMK A01 T10121018  RH  096%=      5-min Rain = 0
KDC1 101121Z 34003KT M01/M02 A3036 RMK A01 T10121018  RH  096%=      5-min Rain = 0
KDC1 101122Z 35003KT M01/M02 A3036 RMK A01 T10111018  RH  096%=      5-min Rain = 0
KDC1 101123Z 36004KT M01/M02 A3036 RMK A01 T10121019  RH  095%=      5-min Rain = 0
KDC1 101124Z 36004KT M01/M02 A3036 RMK A01 T10131020  RH  095%=      5-min Rain = 0
KDC1 101125Z 35004KT M01/M02 A3036 RMK A01 T10131020  RH  095%=      5-min Rain = 0
KDC1 101126Z 35005KT M01/M02 A3036 RMK A01 T10141021  RH  095%=      5-min Rain = 0
KDC1 101127Z 35005KT M02/M02 A3036 RMK A01 T10151022  RH  095%=      5-min Rain = 0
KDC1 101128Z 34005KT M02/M02 A3036 RMK A01 T10161023  RH  095%=      5-min Rain = 0
KDC1 101129Z 35005KT M02/M02 A3036 RMK A01 T10171023  RH  095%=      5-min Rain = 0
KDC1 101130Z 34005KT M02/M02 A3037 RMK A01 T10171024  RH  095%=      5-min Rain = 0
KDC1 101131Z 34005KT M02/M03 A3037 RMK A01 T10181025  RH  095%=      5-min Rain = 0
KDC1 101132Z 35005KT M02/M02 A3037 RMK A01 T10181024  RH  095%=      5-min Rain = 0
KDC1 101133Z 35004KT M02/M02 A3037 RMK A01 T10181024  RH  096%=      5-min Rain = 0
KDC1 101134Z 35004KT M02/M02 A3037 RMK A01 T10181024  RH  096%=      5-min Rain = 0
KDC1 101135Z 35004KT M02/M02 A3037 RMK A01 T10171022  RH  096%=      5-min Rain = 0
KDC1 101136Z 36004KT M02/M02 A3037 RMK A01 T10161021  RH  096%=      5-min Rain = 0
KDC1 101137Z 36004KT M02/M02 A3037 RMK A01 T10151020  RH  097%=      5-min Rain = 0
KDC1 101138Z 36004KT M01/M02 A3037 RMK A01 T10141019  RH  097%=      5-min Rain = 0
KDC1 101139Z 36003KT M01/M02 A3037 RMK A01 T10131017  RH  097%=      5-min Rain = 0
KDC1 101140Z 36003KT M01/M02 A3037 RMK A01 T10121016  RH  097%=      5-min Rain = 0
KDC1 101141Z 00003KT M01/M02 A3037 RMK A01 T10111015  RH  097%=      5-min Rain = 0
KDC1 101142Z 00003KT M01/M01 A3037 RMK A01 T10111014  RH  098%=      5-min Rain = 0
KDC1 101143Z 00003KT M01/M01 A3037 RMK A01 T10101014  RH  098%=      5-min Rain = 0
KDC1 101144Z 00003KT M01/M01 A3037 RMK A01 T10101013  RH  098%=      5-min Rain = 0
KDC1 101145Z 01003KT M01/M01 A3037 RMK A01 T10101013  RH  098%=      5-min Rain = 0
KDC1 101146Z 01002KT M01/M01 A3037 RMK A01 T10111014  RH  098%=      5-min Rain = 0
KDC1 101147Z 01002KT M01/M01 A3037 RMK A01 T10101013  RH  098%=      5-min Rain = 0
KDC1 101148Z 00002KT M01/M01 A3037 RMK A01 T10111013  RH  098%=      5-min Rain = 0
KDC1 101149Z 01001KT M01/M01 A3037 RMK A01 T10111013  RH  098%=      5-min Rain = 0
KDC1 101150Z 00000KT M01/M01 A3037 RMK A01 T10101013  RH  098%=      5-min Rain = 0
KDC1 101151Z 00000KT M01/M01 A3037 RMK A01 T10101013  RH  098%=      5-min Rain = 0
KDC1 101152Z 00000KT M01/M01 A3037 RMK A01 T10111013  RH  098%=      5-min Rain = 0
KDC1 101153Z 36000KT M01/M02 A3037 RMK A01 T10121015  RH  098%=      5-min Rain = 0
KDC1 101154Z 01001KT M01/M02 A3037 RMK A01 T10141017  RH  098%=      5-min Rain = 0
KDC1 101155Z 02000KT M02/M02 A3037 RMK A01 T10151018  RH  098%=      5-min Rain = 0
KDC1 101156Z 02000KT M02/M02 A3037 RMK A01 T10151018  RH  098%=      5-min Rain = 0
KDC1 101157Z 01000KT M02/M02 A3037 RMK A01 T10161019  RH  098%=      5-min Rain = 0
KDC1 101158Z 00000KT M02/M02 A3037 RMK A01 T10161019  RH  098%=      5-min Rain = 0
KDC1 101159Z 00000KT M02/M02 A3037 RMK A01 T10161019  RH  098%=      5-min Rain = 0
KDC1 101200Z 00000KT M02/M02 A3037 RMK A01 T10161019  RH  098%=      5-min Rain = 0
KDC1 101201Z 00000KT M02/M02 A3037 RMK A01 T10161019  RH  098%=      5-min Rain = 0
KDC1 101202Z 33000KT M02/M02 A3038 RMK A01 T10161018  RH  098%=      5-min Rain = 0
KDC1 101203Z 33001KT M02/M02 A3038 RMK A01 T10161019  RH  098%=      5-min Rain = 0
KDC1 101204Z 32001KT M02/M02 A3038 RMK A01 T10161018  RH  098%=      5-min Rain = 0
KDC1 101205Z 31001KT M02/M02 A3038 RMK A01 T10161018  RH  098%=      5-min Rain = 0
KDC1 101206Z 29001KT M02/M02 A3038 RMK A01 T10161018  RH  098%=      5-min Rain = 0
KDC1 101207Z 29001KT M02/M02 A3038 RMK A01 T10161018  RH  098%=      5-min Rain = 0
KDC1 101208Z 28001KT M02/M02 A3038 RMK A01 T10161018  RH  098%=      5-min Rain = 0
KDC1 101209Z 28001KT M02/M02 A3038 RMK A01 T10161018  RH  098%=      5-min Rain = 0
KDC1 101210Z 27001KT M02/M02 A3038 RMK A01 T10161018  RH  098%=      5-min Rain = 0
KDC1 101211Z 27001KT M02/M02 A3038 RMK A01 T10161018  RH  098%=      5-min Rain = 0
KDC1 101212Z 28001KT M02/M02 A3038 RMK A01 T10161018  RH  098%=      5-min Rain = 0
KDC1 101213Z 29002KT M02/M02 A3038 RMK A01 T10161019  RH  098%=      5-min Rain = 0
KDC1 101214Z 30002KT M02/M02 A3038 RMK A01 T10161019  RH  098%=      5-min Rain = 0
KDC1 101215Z 30001KT M02/M02 A3038 RMK A01 T10171019  RH  098%=      5-min Rain = 0
KDC1 101216Z 30001KT M02/M02 A3038 RMK A01 T10171019  RH  098%=      5-min Rain = 0
KDC1 101217Z 29001KT M02/M02 A3038 RMK A01 T10171019  RH  098%=      5-min Rain = 0
KDC1 101218Z 28001KT M02/M02 A3038 RMK A01 T10171019  RH  098%=      5-min Rain = 0
KDC1 101219Z 26001KT M02/M02 A3038 RMK A01 T10161019  RH  098%=      5-min Rain = 0
KDC1 101220Z 25001KT M02/M02 A3038 RMK A01 T10161019  RH  098%=      5-min Rain = 0
KDC1 101221Z 24001KT M02/M02 A3038 RMK A01 T10161019  RH  098%=      5-min Rain = 0
KDC1 101222Z 24000KT M02/M02 A3038 RMK A01 T10161019  RH  098%=      5-min Rain = 0
KDC1 101223Z 29001KT M02/M02 A3038 RMK A01 T10161019  RH  098%=      5-min Rain = 0
KDC1 101224Z 29001KT M02/M02 A3038 RMK A01 T10161019  RH  098%=      5-min Rain = 0
KDC1 101225Z 29001KT M02/M02 A3038 RMK A01 T10161018  RH  098%=      5-min Rain = 0
KDC1 101226Z 28000KT M02/M02 A3038 RMK A01 T10161019  RH  098%=      5-min Rain = 0
KDC1 101227Z 25001KT M02/M02 A3038 RMK A01 T10161018  RH  098%=      5-min Rain = 0
KDC1 101228Z 24002KT M02/M02 A3038 RMK A01 T10161018  RH  098%=      5-min Rain = 0
KDC1 101229Z 25002KT M02/M02 A3038 RMK A01 T10161019  RH  098%=      5-min Rain = 0
KDC1 101230Z 26002KT M02/M02 A3038 RMK A01 T10161019  RH  098%=      5-min Rain = 0
KDC1 101231Z 28002KT M02/M02 A3038 RMK A01 T10161019  RH  098%=      5-min Rain = 0
KDC1 101232Z 29002KT M02/M02 A3038 RMK A01 T10161019  RH  098%=      5-min Rain = 0
KDC1 101233Z 31002KT M02/M02 A3038 RMK A01 T10151018  RH  098%=      5-min Rain = 0
KDC1 101234Z 31002KT M02/M02 A3038 RMK A01 T10151018  RH  098%=      5-min Rain = 0
KDC1 101235Z 31002KT M02/M02 A3038 RMK A01 T10151018  RH  098%=      5-min Rain = 0
KDC1 101236Z 31002KT M02/M02 A3038 RMK A01 T10151018  RH  098%=      5-min Rain = 0
KDC1 101237Z 31002KT M02/M02 A3038 RMK A01 T10151018  RH  098%=      5-min Rain = 0
KDC1 101238Z 30002KT M02/M02 A3038 RMK A01 T10151018  RH  098%=      5-min Rain = 0
KDC1 101239Z 29002KT M01/M02 A3038 RMK A01 T10141018  RH  098%=      5-min Rain = 0
KDC1 101240Z 30002KT M02/M02 A3038 RMK A01 T10151018  RH  098%=      5-min Rain = 0
KDC1 101241Z 31002KT M02/M02 A3038 RMK A01 T10151019  RH  097%=      5-min Rain = 0
KDC1 101242Z 31003KT M02/M02 A3038 RMK A01 T10161020  RH  097%=      5-min Rain = 0
KDC1 101243Z 31003KT M02/M02 A3038 RMK A01 T10161020  RH  097%=      5-min Rain = 0
KDC1 101244Z 32003KT M02/M02 A3038 RMK A01 T10161020  RH  097%=      5-min Rain = 0
KDC1 101245Z 31003KT M02/M02 A3038 RMK A01 T10161020  RH  097%=      5-min Rain = 0
KDC1 101246Z 31003KT M02/M02 A3038 RMK A01 T10161021  RH  097%=      5-min Rain = 0
KDC1 101247Z 30003KT M02/M02 A3038 RMK A01 T10161020  RH  097%=      5-min Rain = 0
KDC1 101248Z 30003KT M02/M02 A3038 RMK A01 T10161021  RH  097%=      5-min Rain = 0
KDC1 101249Z 29003KT M02/M02 A3038 RMK A01 T10161020  RH  097%=      5-min Rain = 0
KDC1 101250Z 29003KT M02/M02 A3038 RMK A01 T10161021  RH  097%=      5-min Rain = 0
KDC1 101251Z 29003KT M02/M02 A3038 RMK A01 T10171022  RH  097%=      5-min Rain = 0
KDC1 101252Z 30003KT M02/M02 A3038 RMK A01 T10171022  RH  097%=      5-min Rain = 0
KDC1 101253Z 30002KT M02/M02 A3038 RMK A01 T10181022  RH  097%=      5-min Rain = 0
KDC1 101254Z 29001KT M02/M02 A3039 RMK A01 T10181023  RH  096%=      5-min Rain = 0
KDC1 101255Z 28001KT M02/M02 A3039 RMK A01 T10181023  RH  096%=      5-min Rain = 0
KDC1 101256Z 27001KT M02/M02 A3039 RMK A01 T10181023  RH  096%=      5-min Rain = 0
KDC1 101257Z 27002KT M02/M02 A3039 RMK A01 T10181023  RH  096%=      5-min Rain = 0
KDC1 101258Z 27002KT M02/M02 A3039 RMK A01 T10181023  RH  096%=      5-min Rain = 0
KDC1 101259Z 28002KT M02/M02 A3039 RMK A01 T10181023  RH  096%=      5-min Rain = 0
KDC1 101300Z 29002KT M02/M02 A3039 RMK A01 T10181023  RH  096%=      5-min Rain = 0
KDC1 101301Z 30002KT M02/M02 A3039 RMK A01 T10181023  RH  096%=      5-min Rain = 0
KDC1 101302Z 31002KT M02/M02 A3039 RMK A01 T10181023  RH  096%=      5-min Rain = 0
KDC1 101303Z 31002KT M02/M02 A3039 RMK A01 T10181024  RH  096%=      5-min Rain = 0
KDC1 101304Z 29001KT M02/M02 A3039 RMK A01 T10181024  RH  096%=      5-min Rain = 0
KDC1 101305Z 27001KT M02/M02 A3039 RMK A01 T10181024  RH  096%=      5-min Rain = 0
KDC1 101306Z 26001KT M02/M02 A3039 RMK A01 T10181024  RH  095%=      5-min Rain = 0
KDC1 101307Z 27002KT M02/M02 A3039 RMK A01 T10181024  RH  095%=      5-min Rain = 0
KDC1 101308Z 29002KT M02/M02 A3039 RMK A01 T10181024  RH  095%=      5-min Rain = 0
KDC1 101309Z 31002KT M02/M02 A304 RMK A01 T10181024  RH  095%=      5-min Rain = 0
KDC1 101310Z 33002KT M02/M02 A304 RMK A01 T10181024  RH  095%=      5-min Rain = 0
KDC1 101311Z 34002KT M02/M02 A304 RMK A01 T10181024  RH  095%=      5-min Rain = 0
KDC1 101312Z 34002KT M02/M02 A304 RMK A01 T10181024  RH  095%=      5-min Rain = 0
KDC1 101313Z 34002KT M02/M03 A304 RMK A01 T10181025  RH  095%=      5-min Rain = 0
KDC1 101314Z 34002KT M02/M03 A304 RMK A01 T10181025  RH  095%=      5-min Rain = 0
KDC1 101315Z 35002KT M02/M03 A304 RMK A01 T10191025  RH  095%=      5-min Rain = 0
KDC1 101316Z 35002KT M02/M03 A304 RMK A01 T10191025  RH  095%=      5-min Rain = 0
KDC1 101317Z 36002KT M02/M03 A304 RMK A01 T10191025  RH  095%=      5-min Rain = 0
KDC1 101318Z 00002KT M02/M03 A304 RMK A01 T10191026  RH  095%=      5-min Rain = 0
KDC1 101319Z 01002KT M02/M03 A304 RMK A01 T10191025  RH  095%=      5-min Rain = 0
KDC1 101320Z 02003KT M02/M03 A304 RMK A01 T10191025  RH  095%=      5-min Rain = 0
KDC1 101321Z 02003KT M02/M03 A304 RMK A01 T10191025  RH  095%=      5-min Rain = 0
KDC1 101322Z 03003KT M02/M03 A304 RMK A01 T10191025  RH  095%=      5-min Rain = 0
KDC1 101323Z 02003KT M02/M03 A304 RMK A01 T10191025  RH  096%=      5-min Rain = 0
KDC1 101324Z 02003KT M02/M03 A304 RMK A01 T10191025  RH  096%=      5-min Rain = 0
KDC1 101325Z 02003KT M02/M03 A304 RMK A01 T10191025  RH  096%=      5-min Rain = 0
KDC1 101326Z 02003KT M02/M02 A304 RMK A01 T10181024  RH  096%=      5-min Rain = 0
KDC1 101327Z 02003KT M02/M02 A304 RMK A01 T10181023  RH  096%=      5-min Rain = 0
KDC1 101328Z 02004KT M02/M02 A304 RMK A01 T10171022  RH  096%=      5-min Rain = 0
KDC1 101329Z 03003KT M02/M02 A304 RMK A01 T10161021  RH  096%=      5-min Rain = 0
KDC1 101330Z 02003KT M02/M02 A304 RMK A01 T10161021  RH  096%=      5-min Rain = 0
KDC1 101331Z 02003KT M02/M02 A304 RMK A01 T10151020  RH  096%=      5-min Rain = 0
KDC1 101332Z 02003KT M02/M02 A304 RMK A01 T10161021  RH  096%=      5-min Rain = 0
KDC1 101333Z 02004KT M02/M02 A304 RMK A01 T10151021  RH  096%=      5-min Rain = 0
KDC1 101334Z 02004KT M02/M02 A304 RMK A01 T10151021  RH  096%=      5-min Rain = 0
KDC1 101335Z 03004KT M02/M02 A304 RMK A01 T10151020  RH  097%=      5-min Rain = 0
KDC1 101336Z 03005KT M02/M02 A304 RMK A01 T10161020  RH  097%=      5-min Rain = 0
KDC1 101337Z 03005KT M02/M02 A304 RMK A01 T10161020  RH  097%=      5-min Rain = 0
KDC1 101338Z 03004KT M02/M02 A304 RMK A01 T10161020  RH  097%=      5-min Rain = 0
KDC1 101339Z 03004KT M02/M02 A304 RMK A01 T10161020  RH  097%=      5-min Rain = 0
KDC1 101340Z 03003KT M02/M02 A304 RMK A01 T10161019  RH  098%=      5-min Rain = 0
KDC1 101341Z 02003KT M02/M02 A3041 RMK A01 T10161020  RH  098%=      5-min Rain = 0
KDC1 101342Z 02003KT M02/M02 A3041 RMK A01 T10161019  RH  098%=      5-min Rain = 0
KDC1 101343Z 02003KT M02/M02 A3041 RMK A01 T10171020  RH  098%=      5-min Rain = 0
KDC1 101344Z 02003KT M02/M02 A3041 RMK A01 T10171020  RH  098%=      5-min Rain = 0
KDC1 101345Z 03004KT M02/M02 A3041 RMK A01 T10171020  RH  098%=      5-min Rain = 0
KDC1 101346Z 03004KT M02/M02 A3041 RMK A01 T10171020  RH  098%=      5-min Rain = 0
KDC1 101347Z 03004KT M02/M02 A3041 RMK A01 T10171020  RH  098%=      5-min Rain = 0
KDC1 101348Z 03003KT M02/M02 A3041 RMK A01 T10181021  RH  098%=      5-min Rain = 0
KDC1 101349Z 03004KT M02/M02 A3041 RMK A01 T10181021  RH  098%=      5-min Rain = 0
KDC1 101350Z 03003KT M02/M02 A3041 RMK A01 T10191021  RH  098%=      5-min Rain = 0
KDC1 101351Z 03002KT M02/M02 A3041 RMK A01 T10191021  RH  098%=      5-min Rain = 0
KDC1 101352Z 04002KT M02/M02 A3041 RMK A01 T10181021  RH  098%=      5-min Rain = 0
KDC1 101353Z 03002KT M02/M02 A3041 RMK A01 T10191021  RH  098%=      5-min Rain = 0
KDC1 101354Z 03003KT M02/M02 A3041 RMK A01 T10191021  RH  099%=      5-min Rain = 0
KDC1 101355Z 03003KT M02/M02 A3041 RMK A01 T10191021  RH  099%=      5-min Rain = 0
KDC1 101356Z 02002KT M02/M02 A3041 RMK A01 T10191021  RH  099%=      5-min Rain = 0
KDC1 101357Z 01002KT M02/M02 A3041 RMK A01 T10181020  RH  099%=      5-min Rain = 0
KDC1 101358Z 01003KT M02/M02 A3041 RMK A01 T10181020  RH  099%=      5-min Rain = 0
KDC1 101359Z 01003KT M02/M02 A3041 RMK A01 T10181020  RH  099%=      5-min Rain = 0
KDC1 101400Z 01002KT M02/M02 A3041 RMK A01 T10181020  RH  099%=      5-min Rain = 0
KDC1 101401Z 01002KT M02/M02 A3041 RMK A01 T10181019  RH  099%=      5-min Rain = 0
KDC1 101402Z 00002KT M02/M02 A3041 RMK A01 T10171019  RH  099%=      5-min Rain = 0
KDC1 101403Z 00002KT M02/M02 A3041 RMK A01 T10171018  RH  099%=      5-min Rain = 0
KDC1 101404Z 01003KT M02/M02 A3041 RMK A01 T10161018  RH  099%=      5-min Rain = 0
KDC1 101405Z 01003KT M02/M02 A3041 RMK A01 T10161017  RH  099%=      5-min Rain = 0
KDC1 101406Z 01002KT M02/M02 A3041 RMK A01 T10151017  RH  099%=      5-min Rain = 0
KDC1 101407Z 01003KT M02/M02 A3041 RMK A01 T10151016  RH  099%=      5-min Rain = 0
KDC1 101408Z 01003KT M02/M02 A3041 RMK A01 T10151016  RH  099%=      5-min Rain = 0
KDC1 101409Z 01002KT M01/M02 A3041 RMK A01 T10141016  RH  099%=      5-min Rain = 0
KDC1 101410Z 01002KT M01/M02 A3041 RMK A01 T10141015  RH  099%=      5-min Rain = 0
KDC1 101411Z 02002KT M01/M01 A3041 RMK A01 T10131014  RH  099%=      5-min Rain = 0
KDC1 101412Z 02002KT M01/M01 A3041 RMK A01 T10131014  RH  099%=      5-min Rain = 0
KDC1 101413Z 02003KT M01/M01 A3042 RMK A01 T10131014  RH  099%=      5-min Rain = 0
KDC1 101414Z 03002KT M01/M01 A3042 RMK A01 T10131014  RH  099%=      5-min Rain = 0
KDC1 101415Z 05002KT M01/M01 A3042 RMK A01 T10131014  RH  099%=      5-min Rain = 0
KDC1 101416Z 05002KT M01/M02 A3042 RMK A01 T10131015  RH  099%=      5-min Rain = 0
KDC1 101417Z 05002KT M01/M02 A3042 RMK A01 T10141015  RH  099%=      5-min Rain = 0
KDC1 101418Z 05002KT M01/M02 A3042 RMK A01 T10141015  RH  099%=      5-min Rain = 0
KDC1 101419Z 05002KT M01/M02 A3042 RMK A01 T10141015  RH  099%=      5-min Rain = 0
KDC1 101420Z 05002KT M01/M02 A3042 RMK A01 T10141015  RH  099%=      5-min Rain = 0
KDC1 101421Z 05002KT M01/M02 A3042 RMK A01 T10141015  RH  099%=      5-min Rain = 0
KDC1 101422Z 05002KT M01/M02 A3042 RMK A01 T10131015  RH  099%=      5-min Rain = 0
KDC1 101423Z 01002KT M01/M02 A3042 RMK A01 T10141015  RH  099%=      5-min Rain = 0
KDC1 101424Z 05001KT M01/M02 A3042 RMK A01 T10131015  RH  099%=      5-min Rain = 0
KDC1 101425Z 03002KT M01/M01 A3042 RMK A01 T10131014  RH  099%=      5-min Rain = 0
KDC1 101426Z 05002KT M01/M01 A3042 RMK A01 T10131014  RH  099%=      5-min Rain = 0
KDC1 101427Z 05001KT M01/M01 A3042 RMK A01 T10131014  RH  099%=      5-min Rain = 0
KDC1 101428Z 06001KT M01/M01 A3042 RMK A01 T10131014  RH  099%=      5-min Rain = 0
KDC1 101429Z 06001KT M01/M01 A3042 RMK A01 T10131014  RH  099%=      5-min Rain = 0
KDC1 101430Z 05001KT M01/M01 A3042 RMK A01 T10131014  RH  099%=      5-min Rain = 0
KDC1 101431Z 05001KT M01/M01 A3042 RMK A01 T10131014  RH  099%=      5-min Rain = 0
KDC1 101432Z 06001KT M01/M01 A3042 RMK A01 T10131014  RH  099%=      5-min Rain = 0
KDC1 101433Z 07001KT M01/M01 A3042 RMK A01 T10131014  RH  099%=      5-min Rain = 0
KDC1 101434Z 08001KT M01/M01 A3042 RMK A01 T10131014  RH  099%=      5-min Rain = 0
KDC1 101435Z 08001KT M01/M01 A3042 RMK A01 T10131014  RH  099%=      5-min Rain = 0
KDC1 101436Z 07001KT M01/M01 A3042 RMK A01 T10131014  RH  099%=      5-min Rain = 0
KDC1 101437Z 05001KT M01/M01 A3041 RMK A01 T10131014  RH  099%=      5-min Rain = 0
KDC1 101438Z 05001KT M01/M01 A3041 RMK A01 T10131014  RH  099%=      5-min Rain = 0
KDC1 101439Z 05002KT M01/M01 A3041 RMK A01 T10131014  RH  099%=      5-min Rain = 0
KDC1 101440Z 05002KT M01/M01 A3042 RMK A01 T10131014  RH  099%=      5-min Rain = 0
KDC1 101441Z 06001KT M01/M01 A3042 RMK A01 T10131014  RH  099%=      5-min Rain = 0
KDC1 101442Z 06001KT M01/M01 A3042 RMK A01 T10121013  RH  099%=      5-min Rain = 0
KDC1 101443Z 08001KT M01/M01 A3042 RMK A01 T10131014  RH  099%=      5-min Rain = 0
KDC1 101444Z 05001KT M01/M01 A3042 RMK A01 T10121013  RH  099%=      5-min Rain = 0
KDC1 101445Z 04001KT M01/M01 A3042 RMK A01 T10121013  RH  099%=      5-min Rain = 0
KDC1 101446Z 04002KT M01/M01 A3042 RMK A01 T10121013  RH  099%=      5-min Rain = 0
KDC1 101447Z 04002KT M01/M01 A3042 RMK A01 T10121013  RH  099%=      5-min Rain = 0
KDC1 101448Z 03002KT M01/M01 A3042 RMK A01 T10121013  RH  099%=      5-min Rain = 0
KDC1 101449Z 04002KT M01/M01 A3042 RMK A01 T10121013  RH  099%=      5-min Rain = 0
KDC1 101450Z 04001KT M01/M01 A3042 RMK A01 T10121013  RH  099%=      5-min Rain = 0
KDC1 101451Z 04002KT M01/M01 A3042 RMK A01 T10121013  RH  099%=      5-min Rain = 0
KDC1 101452Z 05002KT M01/M01 A3042 RMK A01 T10121013  RH  099%=      5-min Rain = 0
KDC1 101453Z 05002KT M01/M01 A3042 RMK A01 T10121013  RH  099%=      5-min Rain = 0
KDC1 101454Z 05002KT M01/M01 A3042 RMK A01 T10111012  RH  099%=      5-min Rain = 0
KDC1 101455Z 06002KT M01/M01 A3042 RMK A01 T10111012  RH  099%=      5-min Rain = 0
KDC1 101456Z 06002KT M01/M01 A3042 RMK A01 T10111012  RH  099%=      5-min Rain = 0
KDC1 101457Z 07002KT M01/M01 A3042 RMK A01 T10111012  RH  099%=      5-min Rain = 0
KDC1 101458Z 07003KT M01/M01 A3042 RMK A01 T10101011  RH  099%=      5-min Rain = 0
KDC1 101459Z 07003KT M01/M01 A3042 RMK A01 T10101011  RH  099%=      5-min Rain = 0
KDC1 101500Z 07003KT M01/M01 A3042 RMK A01 T10101011  RH  099%=      5-min Rain = 0
KDC1 101501Z 07003KT M01/M01 A3042 RMK A01 T10101011  RH  099%=      5-min Rain = 0
KDC1 101502Z 08002KT M01/M01 A3042 RMK A01 T10101011  RH  099%=      5-min Rain = 0
KDC1 101503Z 08002KT M01/M01 A3042 RMK A01 T10091010  RH  099%=      5-min Rain = 0
KDC1 101504Z 09002KT M01/M01 A3042 RMK A01 T10091010  RH  099%=      5-min Rain = 0
KDC1 101505Z 09002KT M01/M01 A3042 RMK A01 T10081009  RH  099%=      5-min Rain = 0
KDC1 101506Z 09002KT M01/M01 A3042 RMK A01 T10081009  RH  099%=      5-min Rain = 0
KDC1 101507Z 09002KT M01/M01 A3042 RMK A01 T10081009  RH  099%=      5-min Rain = 0
KDC1 101508Z 09002KT M01/M01 A3042 RMK A01 T10081009  RH  099%=      5-min Rain = 0
KDC1 101509Z 09003KT M01/M01 A3042 RMK A01 T10081009  RH  099%=      5-min Rain = 0
KDC1 101510Z 08003KT M01/M01 A3042 RMK A01 T10071008  RH  100%=      5-min Rain = 0
KDC1 101511Z 08002KT M01/M01 A3042 RMK A01 T10071008  RH  099%=      5-min Rain = 0
KDC1 101512Z 09003KT M01/M01 A3042 RMK A01 T10071008  RH  099%=      5-min Rain = 0
KDC1 101513Z 09002KT M01/M01 A3042 RMK A01 T10071008  RH  100%=      5-min Rain = 0
KDC1 101514Z 09002KT M01/M01 A3042 RMK A01 T10071008  RH  099%=      5-min Rain = 0
KDC1 101515Z 09002KT M01/M01 A3042 RMK A01 T10071008  RH  099%=      5-min Rain = 0
KDC1 101516Z 09002KT M01/M01 A3042 RMK A01 T10071008  RH  099%=      5-min Rain = 0
KDC1 101517Z 09002KT M01/M01 A3042 RMK A01 T10071008  RH  099%=      5-min Rain = 0
KDC1 101518Z 09003KT M01/M01 A3042 RMK A01 T10071008  RH  099%=      5-min Rain = 0
KDC1 101519Z 09003KT M01/M01 A3042 RMK A01 T10071008  RH  099%=      5-min Rain = 0
KDC1 101520Z 10003KT M01/M01 A3042 RMK A01 T10071008  RH  099%=      5-min Rain = 0
KDC1 101521Z 10003KT M01/M01 A3042 RMK A01 T10071008  RH  099%=      5-min Rain = 0
KDC1 101522Z 10004KT M01/M01 A3042 RMK A01 T10061007  RH  100%=      5-min Rain = 0
KDC1 101523Z 10003KT M01/M01 A3043 RMK A01 T10061007  RH  100%=      5-min Rain = 0
KDC1 101524Z 09003KT M01/M01 A3043 RMK A01 T10061007  RH  100%=      5-min Rain = 0
KDC1 101525Z 09002KT M01/M01 A3043 RMK A01 T10061006  RH  100%=      5-min Rain = 0
KDC1 101526Z 10002KT M01/M01 A3043 RMK A01 T10061007  RH  100%=      5-min Rain = 0
KDC1 101527Z 10002KT M01/M01 A3043 RMK A01 T10061006  RH  100%=      5-min Rain = 0
KDC1 101528Z 10002KT M01/M01 A3043 RMK A01 T10061007  RH  100%=      5-min Rain = 0
KDC1 101529Z 10002KT M01/M01 A3043 RMK A01 T10061007  RH  099%=      5-min Rain = 0
KDC1 101530Z 10002KT M01/M01 A3043 RMK A01 T10061007  RH  099%=      5-min Rain = 0
KDC1 101531Z 11002KT M01/M01 A3043 RMK A01 T10051006  RH  100%=      5-min Rain = 0
KDC1 101532Z 12002KT M00/M01 A3043 RMK A01 T10041005  RH  100%=      5-min Rain = 0
KDC1 101533Z 12002KT M00/M01 A3043 RMK A01 T10041005  RH  100%=      5-min Rain = 0
KDC1 101534Z 12002KT M00/M00 A3043 RMK A01 T10031003  RH  100%=      5-min Rain = 0
KDC1 101535Z 10002KT M00/M00 A3043 RMK A01 T10031004  RH  100%=      5-min Rain = 0
KDC1 101536Z 11002KT M00/M00 A3043 RMK A01 T10021003  RH  100%=      5-min Rain = 0
KDC1 101537Z 11002KT M00/M00 A3044 RMK A01 T10021003  RH  100%=      5-min Rain = 0
KDC1 101538Z 11003KT M00/M00 A3044 RMK A01 T10021002  RH  100%=      5-min Rain = 0
KDC1 101539Z 12003KT M00/M00 A3044 RMK A01 T10011002  RH  100%=      5-min Rain = 0
KDC1 101540Z 12003KT M00/M00 A3044 RMK A01 T10021002  RH  100%=      5-min Rain = 0
KDC1 101541Z 12003KT M00/M00 A3044 RMK A01 T10011002  RH  100%=      5-min Rain = 0
KDC1 101542Z 12003KT M00/M00 A3044 RMK A01 T10011002  RH  100%=      5-min Rain = 0
KDC1 101543Z 11002KT M00/M00 A3044 RMK A01 T10011002  RH  100%=      5-min Rain = 0
KDC1 101544Z 11002KT M00/M00 A3044 RMK A01 T10011002  RH  100%=      5-min Rain = 0
KDC1 101545Z 12002KT 00/00 A3044 RMK A01 T00-000-1  RH  100%=      5-min Rain = 0
KDC1 101546Z 13002KT 00/00 A3044 RMK A01 T000000-0  RH  100%=      5-min Rain = 0
KDC1 101547Z 12002KT 00/00 A3044 RMK A01 T00010001  RH  100%=      5-min Rain = 0
KDC1 101548Z 14002KT 00/00 A3044 RMK A01 T00010001  RH  100%=      5-min Rain = 0
KDC1 101549Z 15003KT 00/00 A3044 RMK A01 T00010001  RH  100%=      5-min Rain = 0
KDC1 101550Z 14003KT 00/00 A3044 RMK A01 T00020002  RH  100%=      5-min Rain = 0
KDC1 101551Z 14002KT 00/00 A3044 RMK A01 T00030002  RH  100%=      5-min Rain = 0
KDC1 101552Z 13002KT 00/00 A3044 RMK A01 T00020002  RH  100%=      5-min Rain = 0
KDC1 101553Z 13002KT 00/00 A3044 RMK A01 T00020001  RH  100%=      5-min Rain = 0
KDC1 101554Z 13002KT 00/00 A3044 RMK A01 T00020002  RH  100%=      5-min Rain = 0
KDC1 101555Z 12002KT 00/00 A3044 RMK A01 T00020002  RH  100%=      5-min Rain = 0
KDC1 101556Z 14002KT 00/00 A3044 RMK A01 T00020002  RH  100%=      5-min Rain = 0
KDC1 101557Z 14002KT 00/00 A3044 RMK A01 T00020002  RH  100%=      5-min Rain = 0
KDC1 101558Z 13002KT 00/00 A3044 RMK A01 T00020001  RH  100%=      5-min Rain = 0
KDC1 101559Z 13002KT 00/00 A3044 RMK A01 T00030002  RH  100%=      5-min Rain = 0
KDC1 101600Z 12002KT 00/00 A3044 RMK A01 T00040003  RH  100%=      5-min Rain = 0
KDC1 101601Z 13002KT 00/00 A3044 RMK A01 T00030003  RH  100%=      5-min Rain = 0
KDC1 101602Z 13002KT 00/00 A3044 RMK A01 T00030002  RH  100%=      5-min Rain = 0
KDC1 101603Z 14002KT 00/00 A3044 RMK A01 T00030003  RH  100%=      5-min Rain = 0
KDC1 101604Z 14003KT 00/00 A3044 RMK A01 T00030003  RH  100%=      5-min Rain = 0
KDC1 101605Z 14002KT 00/00 A3044 RMK A01 T00030002  RH  100%=      5-min Rain = 0
KDC1 101606Z 14002KT 00/00 A3044 RMK A01 T00030002  RH  100%=      5-min Rain = 0
KDC1 101607Z 14001KT 00/00 A3044 RMK A01 T00030002  RH  100%=      5-min Rain = 0
KDC1 101608Z 14002KT 00/00 A3044 RMK A01 T00030002  RH  100%=      5-min Rain = 0
KDC1 101609Z 12002KT 00/00 A3044 RMK A01 T00030002  RH  100%=      5-min Rain = 0
KDC1 101610Z 13002KT 00/00 A3044 RMK A01 T00040003  RH  100%=      5-min Rain = 0
KDC1 101611Z 14002KT 00/00 A3044 RMK A01 T00040004  RH  100%=      5-min Rain = 0
KDC1 101612Z 14002KT 01/01 A3044 RMK A01 T00050005  RH  100%=      5-min Rain = 0
KDC1 101613Z 14002KT 01/01 A3044 RMK A01 T00060006  RH  100%=      5-min Rain = 0
KDC1 101614Z 14002KT 01/01 A3044 RMK A01 T00070006  RH  100%=      5-min Rain = 0
KDC1 101615Z 12002KT 01/01 A3044 RMK A01 T00070006  RH  100%=      5-min Rain = 0
KDC1 101616Z 10002KT 01/01 A3044 RMK A01 T00070006  RH  100%=      5-min Rain = 0
KDC1 101617Z 10001KT 01/01 A3044 RMK A01 T00070006  RH  100%=      5-min Rain = 0
KDC1 101618Z 11001KT 01/01 A3044 RMK A01 T00070006  RH  100%=      5-min Rain = 0
KDC1 101619Z 12002KT 01/01 A3044 RMK A01 T00080007  RH  100%=      5-min Rain = 0
KDC1 101620Z 13002KT 01/01 A3044 RMK A01 T00080008  RH  100%=      5-min Rain = 0
KDC1 101621Z 13002KT 01/01 A3044 RMK A01 T00080008  RH  100%=      5-min Rain = 0
KDC1 101622Z 11002KT 01/01 A3044 RMK A01 T00080008  RH  100%=      5-min Rain = 0
KDC1 101623Z 10002KT 01/01 A3044 RMK A01 T00080008  RH  100%=      5-min Rain = 0
KDC1 101624Z 09002KT 01/01 A3044 RMK A01 T00080008  RH  100%=      5-min Rain = 0
KDC1 101625Z 10001KT 01/01 A3044 RMK A01 T00080008  RH  100%=      5-min Rain = 0
KDC1 101626Z 10001KT 01/01 A3044 RMK A01 T00080008  RH  100%=      5-min Rain = 0
KDC1 101627Z 10001KT 01/01 A3044 RMK A01 T00090008  RH  100%=      5-min Rain = 0
KDC1 101628Z 11000KT 01/01 A3044 RMK A01 T00090008  RH  100%=      5-min Rain = 0
KDC1 101629Z 09001KT 01/01 A3044 RMK A01 T00090008  RH  100%=      5-min Rain = 0
KDC1 101630Z 09001KT 01/01 A3044 RMK A01 T00090008  RH  100%=      5-min Rain = 0
KDC1 101631Z 09002KT 01/01 A3044 RMK A01 T00100009  RH  100%=      5-min Rain = 0
KDC1 101632Z 10002KT 01/01 A3044 RMK A01 T00100009  RH  100%=      5-min Rain = 0
KDC1 101633Z 10002KT 01/01 A3044 RMK A01 T00100010  RH  100%=      5-min Rain = 0
KDC1 101634Z 11002KT 01/01 A3044 RMK A01 T00110010  RH  100%=      5-min Rain = 0
KDC1 101635Z 09001KT 01/01 A3044 RMK A01 T00110011  RH  100%=      5-min Rain = 0
KDC1 101636Z 09003KT 01/01 A3044 RMK A01 T00120012  RH  100%=      5-min Rain = 0
KDC1 101637Z 09002KT 01/01 A3044 RMK A01 T00130013  RH  100%=      5-min Rain = 0
KDC1 101638Z 08003KT 01/01 A3044 RMK A01 T00140013  RH  100%=      5-min Rain = 0
KDC1 101639Z 09002KT 01/01 A3044 RMK A01 T00140013  RH  100%=      5-min Rain = 0
KDC1 101640Z 10002KT 01/01 A3044 RMK A01 T00140013  RH  100%=      5-min Rain = 0
KDC1 101641Z 10001KT 01/01 A3044 RMK A01 T00140013  RH  100%=      5-min Rain = 0
KDC1 101642Z 10003KT 01/01 A3044 RMK A01 T00140013  RH  100%=      5-min Rain = 0
KDC1 101643Z 10003KT 01/01 A3044 RMK A01 T00140013  RH  100%=      5-min Rain = 0
KDC1 101644Z 09002KT 01/01 A3044 RMK A01 T00130013  RH  100%=      5-min Rain = 0
KDC1 101645Z 09001KT 01/01 A3044 RMK A01 T00130013  RH  100%=      5-min Rain = 0
KDC1 101646Z 07001KT 01/01 A3044 RMK A01 T00140013  RH  100%=      5-min Rain = 0
KDC1 101647Z 11002KT 02/01 A3044 RMK A01 T00150014  RH  100%=      5-min Rain = 0
KDC1 101648Z 11002KT 02/02 A3044 RMK A01 T00160015  RH  100%=      5-min Rain = 0
KDC1 101649Z 09002KT 02/02 A3044 RMK A01 T00160016  RH  100%=      5-min Rain = 0
KDC1 101650Z 08003KT 02/02 A3044 RMK A01 T00170016  RH  100%=      5-min Rain = 0
KDC1 101651Z 07002KT 02/02 A3044 RMK A01 T00160015  RH  100%=      5-min Rain = 0
KDC1 101652Z 08000KT 02/02 A3044 RMK A01 T00150015  RH  100%=      5-min Rain = 0
KDC1 101653Z 12001KT 02/02 A3044 RMK A01 T00160016  RH  100%=      5-min Rain = 0
KDC1 101654Z 10003KT 02/02 A3044 RMK A01 T00170016  RH  100%=      5-min Rain = 0
KDC1 101655Z 08002KT 02/02 A3044 RMK A01 T00180017  RH  100%=      5-min Rain = 0
KDC1 101656Z 07002KT 02/02 A3044 RMK A01 T00170017  RH  100%=      5-min Rain = 0
KDC1 101657Z 10002KT 02/02 A3044 RMK A01 T00170016  RH  100%=      5-min Rain = 0
KDC1 101658Z 10002KT 02/02 A3044 RMK A01 T00170016  RH  100%=      5-min Rain = 0
KDC1 101659Z 10001KT 02/01 A3044 RMK A01 T00150014  RH  099%=      5-min Rain = 0
KDC1 101700Z 10001KT 02/01 A3044 RMK A01 T00150014  RH  099%=      5-min Rain = 0
KDC1 101701Z 11002KT 02/01 A3044 RMK A01 T00150014  RH  099%=      5-min Rain = 0
KDC1 101702Z 10001KT 01/01 A3044 RMK A01 T00140013  RH  099%=      5-min Rain = 0
KDC1 101703Z 11002KT 01/01 A3043 RMK A01 T00130012  RH  099%=      5-min Rain = 0
KDC1 101704Z 07001KT 01/01 A3043 RMK A01 T00140014  RH  099%=      5-min Rain = 0
KDC1 101705Z 10000KT 02/01 A3043 RMK A01 T00150014  RH  100%=      5-min Rain = 0
KDC1 101706Z 10001KT 02/02 A3043 RMK A01 T00160015  RH  100%=      5-min Rain = 0
KDC1 101707Z 09003KT 02/02 A3043 RMK A01 T00170016  RH  100%=      5-min Rain = 0
KDC1 101708Z 09003KT 02/02 A3044 RMK A01 T00170016  RH  100%=      5-min Rain = 0
KDC1 101709Z 10003KT 02/02 A3044 RMK A01 T00160015  RH  100%=      5-min Rain = 0
KDC1 101710Z 09003KT 02/02 A3044 RMK A01 T00160015  RH  099%=      5-min Rain = 0
KDC1 101711Z 09003KT 02/02 A3043 RMK A01 T00160015  RH  099%=      5-min Rain = 0
KDC1 101712Z 10002KT 02/02 A3043 RMK A01 T00150015  RH  099%=      5-min Rain = 0
KDC1 101713Z 10002KT 02/02 A3043 RMK A01 T00160015  RH  099%=      5-min Rain = 0
KDC1 101714Z 10002KT 02/01 A3043 RMK A01 T00150014  RH  099%=      5-min Rain = 0
KDC1 101715Z 12001KT 01/01 A3043 RMK A01 T00140013  RH  099%=      5-min Rain = 0
KDC1 101716Z 10001KT 01/01 A3043 RMK A01 T00140014  RH  099%=      5-min Rain = 0
KDC1 101717Z 12002KT 02/01 A3043 RMK A01 T00150014  RH  099%=      5-min Rain = 0
KDC1 101718Z 10004KT 02/02 A3043 RMK A01 T00160016  RH  099%=      5-min Rain = 0
KDC1 101719Z 10003KT 02/02 A3043 RMK A01 T00160015  RH  100%=      5-min Rain = 0
KDC1 101720Z 09002KT 02/02 A3043 RMK A01 T00160015  RH  099%=      5-min Rain = 0
KDC1 101721Z 09001KT 02/02 A3043 RMK A01 T00160015  RH  099%=      5-min Rain = 0
KDC1 101722Z 11002KT 02/02 A3043 RMK A01 T00160015  RH  099%=      5-min Rain = 0
KDC1 101723Z 12002KT 02/02 A3043 RMK A01 T00160015  RH  099%=      5-min Rain = 0
KDC1 101724Z 13001KT 02/01 A3043 RMK A01 T00150014  RH  099%=      5-min Rain = 0
KDC1 101725Z 10001KT 02/01 A3043 RMK A01 T00150014  RH  099%=      5-min Rain = 0
KDC1 101726Z 08001KT 02/01 A3043 RMK A01 T00150014  RH  099%=      5-min Rain = 0
KDC1 101727Z 09002KT 02/02 A3043 RMK A01 T00160015  RH  099%=      5-min Rain = 0
KDC1 101728Z 11002KT 02/02 A3043 RMK A01 T00160015  RH  099%=      5-min Rain = 0
KDC1 101729Z 09002KT 02/02 A3043 RMK A01 T00160015  RH  099%=      5-min Rain = 0
KDC1 101730Z 09002KT 02/02 A3043 RMK A01 T00160015  RH  099%=      5-min Rain = 0
KDC1 101731Z 09002KT 02/02 A3043 RMK A01 T00170016  RH  099%=      5-min Rain = 0
KDC1 101732Z 07002KT 02/02 A3043 RMK A01 T00170016  RH  099%=      5-min Rain = 0
KDC1 101733Z 08002KT 02/02 A3043 RMK A01 T00170016  RH  099%=      5-min Rain = 0
KDC1 101734Z 07002KT 02/02 A3043 RMK A01 T00170016  RH  099%=      5-min Rain = 0
KDC1 101735Z 07002KT 02/02 A3043 RMK A01 T00170017  RH  099%=      5-min Rain = 0
KDC1 101736Z 10003KT 02/02 A3043 RMK A01 T00180017  RH  099%=      5-min Rain = 0
KDC1 101737Z 11003KT 02/02 A3043 RMK A01 T00170017  RH  099%=      5-min Rain = 0
KDC1 101738Z 10003KT 02/02 A3042 RMK A01 T00180017  RH  099%=      5-min Rain = 0
KDC1 101739Z 11003KT 02/02 A3042 RMK A01 T00180017  RH  099%=      5-min Rain = 0
KDC1 101740Z 10002KT 02/02 A3042 RMK A01 T00180017  RH  099%=      5-min Rain = 0
KDC1 101741Z 11002KT 02/02 A3042 RMK A01 T00190018  RH  099%=      5-min Rain = 0
KDC1 101742Z 12003KT 02/02 A3042 RMK A01 T00200019  RH  099%=      5-min Rain = 0
KDC1 101743Z 12003KT 02/02 A3042 RMK A01 T00200019  RH  099%=      5-min Rain = 0
KDC1 101744Z 11003KT 02/02 A3042 RMK A01 T00200019  RH  099%=      5-min Rain = 0
KDC1 101745Z 11002KT 02/02 A3042 RMK A01 T00200019  RH  099%=      5-min Rain = 0
KDC1 101746Z 09002KT 02/02 A3042 RMK A01 T00190018  RH  099%=      5-min Rain = 0
KDC1 101747Z 11001KT 02/02 A3042 RMK A01 T00190018  RH  099%=      5-min Rain = 0
KDC1 101748Z 09000KT 02/02 A3042 RMK A01 T00200019  RH  099%=      5-min Rain = 0
KDC1 101749Z 08002KT 02/02 A3042 RMK A01 T00220021  RH  099%=      5-min Rain = 0
KDC1 101750Z 08002KT 02/02 A3042 RMK A01 T00220021  RH  099%=      5-min Rain = 0
KDC1 101751Z 08001KT 02/02 A3042 RMK A01 T00220021  RH  099%=      5-min Rain = 0
KDC1 101752Z 11001KT 02/02 A3042 RMK A01 T00220021  RH  099%=      5-min Rain = 0
KDC1 101753Z 24000KT 02/02 A3042 RMK A01 T00220021  RH  099%=      5-min Rain = 0
KDC1 101754Z 09001KT 02/02 A3042 RMK A01 T00240023  RH  099%=      5-min Rain = 0
KDC1 101755Z 14002KT 02/02 A3042 RMK A01 T00240023  RH  099%=      5-min Rain = 0
KDC1 101756Z 16000KT 03/02 A3042 RMK A01 T00250024  RH  099%=      5-min Rain = 0
KDC1 101757Z 15001KT 03/03 A3042 RMK A01 T00270026  RH  099%=      5-min Rain = 0
KDC1 101758Z 17002KT 03/03 A3042 RMK A01 T00270026  RH  099%=      5-min Rain = 0
KDC1 101759Z 17002KT 03/03 A3042 RMK A01 T00270026  RH  099%=      5-min Rain = 0
KDC1 101800Z 17003KT 03/03 A3042 RMK A01 T00280027  RH  099%=      5-min Rain = 0
KDC1 101801Z 17002KT 03/03 A3042 RMK A01 T00270026  RH  099%=      5-min Rain = 0
KDC1 101802Z 13001KT 03/03 A3042 RMK A01 T00260025  RH  099%=      5-min Rain = 0
KDC1 101803Z 12002KT 03/03 A3042 RMK A01 T00270026  RH  099%=      5-min Rain = 0
KDC1 101804Z 13001KT 03/03 A3042 RMK A01 T00270026  RH  099%=      5-min Rain = 0
KDC1 101805Z 10002KT 03/03 A3042 RMK A01 T00270026  RH  099%=      5-min Rain = 0
KDC1 101806Z 08002KT 03/03 A3042 RMK A01 T00260025  RH  099%=      5-min Rain = 0
KDC1 101807Z 08002KT 03/02 A3042 RMK A01 T00250024  RH  099%=      5-min Rain = 0
KDC1 101808Z 12002KT 03/02 A3042 RMK A01 T00250024  RH  099%=      5-min Rain = 0
KDC1 101809Z 14003KT 03/03 A3042 RMK A01 T00260025  RH  099%=      5-min Rain = 0
KDC1 101810Z 14004KT 03/03 A3042 RMK A01 T00290027  RH  099%=      5-min Rain = 0
KDC1 101811Z 14003KT 03/03 A3042 RMK A01 T00300029  RH  099%=      5-min Rain = 0
KDC1 101812Z 11003KT 03/03 A3042 RMK A01 T00300029  RH  099%=      5-min Rain = 0
KDC1 101813Z 12004KT 03/03 A3042 RMK A01 T00290028  RH  099%=      5-min Rain = 0
KDC1 101814Z 11003KT 03/03 A3042 RMK A01 T00290028  RH  099%=      5-min Rain = 0
KDC1 101815Z 10002KT 03/03 A3041 RMK A01 T00290028  RH  099%=      5-min Rain = 0
KDC1 101816Z 15003KT 03/03 A3041 RMK A01 T00290027  RH  099%=      5-min Rain = 0
KDC1 101817Z 16002KT 03/03 A3041 RMK A01 T00290028  RH  099%=      5-min Rain = 0
KDC1 101818Z 16001KT 03/03 A3041 RMK A01 T00290028  RH  099%=      5-min Rain = 0
KDC1 101819Z 15001KT 03/03 A3041 RMK A01 T00300028  RH  099%=      5-min Rain = 0
KDC1 101820Z 13003KT 03/03 A3041 RMK A01 T00320030  RH  099%=      5-min Rain = 0
KDC1 101821Z 12002KT 03/03 A3041 RMK A01 T00330031  RH  099%=      5-min Rain = 0
KDC1 101822Z 12002KT 03/03 A3041 RMK A01 T00330031  RH  099%=      5-min Rain = 0
KDC1 101823Z 11003KT 03/03 A3041 RMK A01 T00320031  RH  099%=      5-min Rain = 0
KDC1 101824Z 11004KT 03/03 A3041 RMK A01 T00320031  RH  099%=      5-min Rain = 0
KDC1 101825Z 11004KT 03/03 A3041 RMK A01 T00320030  RH  099%=      5-min Rain = 0
KDC1 101826Z 11003KT 03/03 A304 RMK A01 T00310029  RH  099%=      5-min Rain = 0
KDC1 101827Z 13003KT 03/03 A304 RMK A01 T00310029  RH  099%=      5-min Rain = 0
KDC1 101828Z 15003KT 03/03 A304 RMK A01 T00330031  RH  099%=      5-min Rain = 0
KDC1 101829Z 15003KT 04/03 A304 RMK A01 T00350033  RH  099%=      5-min Rain = 0
KDC1 101830Z 14003KT 04/03 A304 RMK A01 T00350033  RH  099%=      5-min Rain = 0
KDC1 101831Z 11003KT 03/03 A304 RMK A01 T00340032  RH  099%=      5-min Rain = 0
KDC1 101832Z 13002KT 03/03 A304 RMK A01 T00340032  RH  098%=      5-min Rain = 0
KDC1 101833Z 14002KT 04/03 A304 RMK A01 T00360034  RH  099%=      5-min Rain = 0
KDC1 101834Z 11002KT 04/04 A3039 RMK A01 T00370035  RH  099%=      5-min Rain = 0
KDC1 101835Z 11003KT 04/04 A3039 RMK A01 T00390037  RH  099%=      5-min Rain = 0
KDC1 101836Z 12003KT 04/04 A3039 RMK A01 T00380036  RH  099%=      5-min Rain = 0
KDC1 101837Z 13003KT 04/04 A3039 RMK A01 T00370035  RH  098%=      5-min Rain = 0
KDC1 101838Z 15004KT 04/03 A3039 RMK A01 T00370034  RH  098%=      5-min Rain = 0
KDC1 101839Z 14003KT 04/04 A3039 RMK A01 T00380035  RH  098%=      5-min Rain = 0
KDC1 101840Z 11003KT 04/04 A3039 RMK A01 T00380035  RH  098%=      5-min Rain = 0
KDC1 101841Z 12003KT 04/03 A3039 RMK A01 T00360034  RH  098%=      5-min Rain = 0
KDC1 101842Z 10002KT 04/03 A3039 RMK A01 T00360033  RH  098%=      5-min Rain = 0
KDC1 101843Z 09002KT 04/04 A3039 RMK A01 T00380035  RH  098%=      5-min Rain = 0
KDC1 101844Z 15002KT 04/04 A3039 RMK A01 T00380036  RH  098%=      5-min Rain = 0
KDC1 101845Z 15003KT 04/04 A3038 RMK A01 T00400038  RH  098%=      5-min Rain = 0
KDC1 101846Z 14003KT 04/04 A3038 RMK A01 T00410038  RH  098%=      5-min Rain = 0
KDC1 101847Z 13002KT 04/04 A3038 RMK A01 T00410038  RH  098%=      5-min Rain = 0
KDC1 101848Z 12002KT 04/04 A3038 RMK A01 T00420039  RH  098%=      5-min Rain = 0
KDC1 101849Z 12003KT 04/04 A3038 RMK A01 T00430040  RH  098%=      5-min Rain = 0
KDC1 101850Z 11004KT 04/04 A3038 RMK A01 T00420039  RH  098%=      5-min Rain = 0
KDC1 101851Z 12004KT 04/04 A3038 RMK A01 T00420038  RH  098%=      5-min Rain = 0
KDC1 101852Z 13003KT 04/04 A3038 RMK A01 T00410038  RH  098%=      5-min Rain = 0
KDC1 101853Z 12003KT 04/04 A3038 RMK A01 T00410038  RH  098%=      5-min Rain = 0
KDC1 101854Z 12002KT 04/04 A3038 RMK A01 T00420038  RH  098%=      5-min Rain = 0
KDC1 101855Z 11002KT 04/04 A3038 RMK A01 T00420039  RH  098%=      5-min Rain = 0
KDC1 101856Z 13003KT 04/04 A3037 RMK A01 T00440040  RH  098%=      5-min Rain = 0
KDC1 101857Z 08003KT 05/04 A3037 RMK A01 T00460042  RH  098%=      5-min Rain = 0
KDC1 101858Z 09002KT 05/04 A3037 RMK A01 T00460042  RH  097%=      5-min Rain = 0
KDC1 101859Z 13003KT 05/04 A3037 RMK A01 T00460042  RH  097%=      5-min Rain = 0
KDC1 101900Z 13003KT 05/04 A3037 RMK A01 T00460042  RH  097%=      5-min Rain = 0
KDC1 101901Z 13004KT 05/04 A3037 RMK A01 T00470043  RH  097%=      5-min Rain = 0
KDC1 101902Z 13003KT 05/04 A3037 RMK A01 T00480044  RH  097%=      5-min Rain = 0
KDC1 101903Z 13002KT 05/05 A3037 RMK A01 T00500045  RH  097%=      5-min Rain = 0
KDC1 101904Z 14002KT 05/05 A3037 RMK A01 T00510045  RH  096%=      5-min Rain = 0
KDC1 101905Z 12003KT 05/05 A3037 RMK A01 T00510046  RH  096%=      5-min Rain = 0
KDC1 101906Z 13003KT 05/04 A3037 RMK A01 T00510044  RH  095%=      5-min Rain = 0
KDC1 101907Z 13003KT 05/04 A3037 RMK A01 T00510043  RH  095%=      5-min Rain = 0
KDC1 101908Z 12003KT 05/04 A3037 RMK A01 T00510043  RH  095%=      5-min Rain = 0
KDC1 101909Z 12003KT 05/04 A3037 RMK A01 T00520043  RH  094%=      5-min Rain = 0
KDC1 101910Z 13002KT 05/04 A3037 RMK A01 T00520043  RH  094%=      5-min Rain = 0
KDC1 101911Z 15003KT 05/04 A3037 RMK A01 T00530044  RH  094%=      5-min Rain = 0
KDC1 101912Z 13003KT 05/05 A3037 RMK A01 T00540046  RH  094%=      5-min Rain = 0
KDC1 101913Z 13002KT 06/05 A3037 RMK A01 T00550046  RH  094%=      5-min Rain = 0
KDC1 101914Z 11002KT 06/05 A3037 RMK A01 T00570048  RH  094%=      5-min Rain = 0
KDC1 101915Z 12002KT 06/05 A3037 RMK A01 T00580048  RH  094%=      5-min Rain = 0
KDC1 101916Z 13004KT 06/05 A3037 RMK A01 T00590048  RH  093%=      5-min Rain = 0
KDC1 101917Z 12003KT 06/05 A3037 RMK A01 T00580046  RH  092%=      5-min Rain = 0
KDC1 101918Z 15003KT 06/05 A3037 RMK A01 T00570045  RH  092%=      5-min Rain = 0
KDC1 101919Z 12003KT 06/05 A3037 RMK A01 T00580047  RH  092%=      5-min Rain = 0
KDC1 101920Z 14003KT 06/05 A3037 RMK A01 T00590046  RH  092%=      5-min Rain = 0
KDC1 101921Z 15002KT 06/05 A3037 RMK A01 T00600048  RH  092%=      5-min Rain = 0
KDC1 101922Z 14004KT 06/05 A3037 RMK A01 T00610049  RH  092%=      5-min Rain = 0
KDC1 101923Z 13003KT 06/05 A3037 RMK A01 T00620047  RH  090%=      5-min Rain = 0
KDC1 101924Z 15004KT 06/05 A3037 RMK A01 T00610045  RH  090%=      5-min Rain = 0
KDC1 101925Z 15003KT 06/05 A3036 RMK A01 T00610047  RH  090%=      5-min Rain = 0
KDC1 101926Z 15002KT 06/05 A3036 RMK A01 T00620046  RH  090%=      5-min Rain = 0
KDC1 101927Z 14001KT 06/05 A3036 RMK A01 T00620046  RH  089%=      5-min Rain = 0
KDC1 101928Z 13002KT 07/05 A3036 RMK A01 T00650049  RH  090%=      5-min Rain = 0
KDC1 101929Z 13003KT 07/05 A3036 RMK A01 T00650048  RH  089%=      5-min Rain = 0
KDC1 101930Z 12002KT 07/05 A3036 RMK A01 T00650046  RH  088%=      5-min Rain = 0
KDC1 101931Z 12002KT 06/05 A3036 RMK A01 T00630045  RH  088%=      5-min Rain = 0
KDC1 101932Z 14003KT 06/05 A3036 RMK A01 T00640047  RH  089%=      5-min Rain = 0
KDC1 101933Z 16002KT 07/05 A3036 RMK A01 T00650048  RH  089%=      5-min Rain = 0
KDC1 101934Z 15002KT 07/05 A3036 RMK A01 T00670051  RH  089%=      5-min Rain = 0
KDC1 101935Z 13002KT 07/05 A3036 RMK A01 T00690052  RH  089%=      5-min Rain = 0
KDC1 101936Z 11002KT 07/05 A3036 RMK A01 T00690050  RH  088%=      5-min Rain = 0
KDC1 101937Z 12002KT 07/05 A3036 RMK A01 T00690049  RH  088%=      5-min Rain = 0
KDC1 101938Z 16003KT 07/05 A3036 RMK A01 T00690050  RH  088%=      5-min Rain = 0
KDC1 101939Z 15002KT 07/05 A3036 RMK A01 T00690049  RH  087%=      5-min Rain = 0
KDC1 101940Z 16002KT 07/05 A3036 RMK A01 T00700049  RH  086%=      5-min Rain = 0
KDC1 101941Z 15004KT 07/05 A3036 RMK A01 T00700049  RH  086%=      5-min Rain = 0
KDC1 101942Z 14003KT 07/05 A3036 RMK A01 T00710048  RH  086%=      5-min Rain = 0
KDC1 101943Z 11002KT 07/05 A3036 RMK A01 T00700046  RH  085%=      5-min Rain = 0
KDC1 101944Z 10002KT 07/05 A3036 RMK A01 T00690047  RH  086%=      5-min Rain = 0
KDC1 101945Z 10003KT 07/05 A3035 RMK A01 T00690048  RH  086%=      5-min Rain = 0
KDC1 101946Z 15003KT 07/05 A3035 RMK A01 T00700049  RH  086%=      5-min Rain = 0
KDC1 101947Z 14003KT 07/05 A3035 RMK A01 T00710048  RH  086%=      5-min Rain = 0
KDC1 101948Z 14002KT 07/05 A3035 RMK A01 T00710048  RH  085%=      5-min Rain = 0
KDC1 101949Z 14003KT 07/05 A3035 RMK A01 T00720048  RH  085%=      5-min Rain = 0
KDC1 101950Z 15003KT 07/05 A3035 RMK A01 T00720048  RH  085%=      5-min Rain = 0
KDC1 101951Z 15001KT 07/05 A3035 RMK A01 T00730046  RH  083%=      5-min Rain = 0
KDC1 101952Z 15001KT 07/05 A3035 RMK A01 T00730048  RH  084%=      5-min Rain = 0
KDC1 101953Z 12001KT 08/05 A3035 RMK A01 T00750048  RH  083%=      5-min Rain = 0
KDC1 101954Z 10000KT 08/05 A3035 RMK A01 T00770053  RH  085%=      5-min Rain = 0
KDC1 101955Z 15001KT 08/06 A3035 RMK A01 T00810057  RH  085%=      5-min Rain = 0
KDC1 101956Z 15003KT 08/06 A3035 RMK A01 T00830058  RH  084%=      5-min Rain = 0
KDC1 101957Z 14002KT 08/05 A3035 RMK A01 T00820053  RH  082%=      5-min Rain = 0
KDC1 101958Z 14003KT 08/05 A3035 RMK A01 T00810052  RH  082%=      5-min Rain = 0
KDC1 101959Z 14002KT 08/05 A3034 RMK A01 T00800053  RH  083%=      5-min Rain = 0
KDC1 102000Z 15002KT 08/05 A3034 RMK A01 T00800053  RH  083%=      5-min Rain = 0
KDC1 102001Z 12003KT 08/05 A3034 RMK A01 T00800050  RH  082%=      5-min Rain = 0
KDC1 102002Z 15003KT 08/05 A3034 RMK A01 T00800052  RH  083%=      5-min Rain = 0
KDC1 102003Z 12003KT 08/05 A3034 RMK A01 T00790051  RH  082%=      5-min Rain = 0
KDC1 102004Z 11002KT 08/05 A3034 RMK A01 T00790050  RH  082%=      5-min Rain = 0
KDC1 102005Z 13002KT 08/05 A3034 RMK A01 T00780050  RH  083%=      5-min Rain = 0
KDC1 102006Z 13004KT 08/05 A3034 RMK A01 T00790054  RH  084%=      5-min Rain = 0
KDC1 102007Z 14004KT 08/05 A3034 RMK A01 T00800054  RH  083%=      5-min Rain = 0
KDC1 102008Z 13004KT 08/06 A3034 RMK A01 T00810055  RH  084%=      5-min Rain = 0
KDC1 102009Z 14004KT 08/05 A3034 RMK A01 T00810053  RH  083%=      5-min Rain = 0
KDC1 102010Z 13003KT 08/06 A3033 RMK A01 T00810056  RH  084%=      5-min Rain = 0
KDC1 102011Z 12005KT 08/06 A3033 RMK A01 T00830059  RH  085%=      5-min Rain = 0
KDC1 102012Z 12003KT 08/06 A3033 RMK A01 T00840056  RH  082%=      5-min Rain = 0
KDC1 102013Z 12003KT 08/06 A3033 RMK A01 T00830055  RH  082%=      5-min Rain = 0
KDC1 102014Z 12004KT 08/06 A3033 RMK A01 T00840057  RH  083%=      5-min Rain = 0
KDC1 102015Z 10004KT 08/06 A3033 RMK A01 T00840055  RH  082%=      5-min Rain = 0
KDC1 102016Z 11004KT 08/06 A3033 RMK A01 T00840055  RH  082%=      5-min Rain = 0
KDC1 102017Z 12003KT 08/06 A3033 RMK A01 T00840055  RH  082%=      5-min Rain = 0
KDC1 102018Z 11003KT 09/05 A3033 RMK A01 T00850052  RH  080%=      5-min Rain = 0
KDC1 102019Z 10004KT 08/05 A3033 RMK A01 T00840050  RH  079%=      5-min Rain = 0
KDC1 102020Z 13004KT 08/05 A3033 RMK A01 T00830049  RH  079%=      5-min Rain = 0
KDC1 102021Z 13003KT 08/05 A3033 RMK A01 T00830050  RH  080%=      5-min Rain = 0
KDC1 102022Z 12002KT 08/05 A3033 RMK A01 T00830048  RH  079%=      5-min Rain = 0
KDC1 102023Z 13004KT 09/05 A3033 RMK A01 T00850050  RH  078%=      5-min Rain = 0
KDC1 102024Z 12003KT 09/05 A3033 RMK A01 T00870048  RH  076%=      5-min Rain = 0
KDC1 102025Z 09002KT 09/05 A3033 RMK A01 T00870045  RH  075%=      5-min Rain = 0
KDC1 102026Z 11003KT 09/05 A3033 RMK A01 T00870047  RH  076%=      5-min Rain = 0
KDC1 102027Z 13003KT 09/05 A3033 RMK A01 T00880048  RH  076%=      5-min Rain = 0
KDC1 102028Z 14003KT 09/05 A3033 RMK A01 T00890049  RH  076%=      5-min Rain = 0
KDC1 102029Z 12003KT 09/05 A3033 RMK A01 T00900050  RH  076%=      5-min Rain = 0
KDC1 102030Z 11004KT 09/05 A3033 RMK A01 T00910052  RH  076%=      5-min Rain = 0
KDC1 102031Z 11004KT 09/05 A3033 RMK A01 T00930054  RH  077%=      5-min Rain = 0
KDC1 102032Z 12002KT 09/05 A3033 RMK A01 T00930053  RH  076%=      5-min Rain = 0
KDC1 102033Z 07001KT 09/05 A3033 RMK A01 T00930053  RH  076%=      5-min Rain = 0
KDC1 102034Z 15002KT 09/05 A3032 RMK A01 T00940053  RH  076%=      5-min Rain = 0
KDC1 102035Z 14003KT 10/05 A3032 RMK A01 T00960053  RH  075%=      5-min Rain = 0
KDC1 102036Z 11002KT 10/05 A3032 RMK A01 T00960048  RH  072%=      5-min Rain = 0
KDC1 102037Z 09003KT 10/05 A3032 RMK A01 T00960051  RH  074%=      5-min Rain = 0
KDC1 102038Z 12004KT 10/05 A3032 RMK A01 T00960052  RH  074%=      5-min Rain = 0
KDC1 102039Z 12004KT 10/05 A3032 RMK A01 T00950050  RH  073%=      5-min Rain = 0
KDC1 102040Z 10002KT 09/05 A3032 RMK A01 T00930048  RH  074%=      5-min Rain = 0
KDC1 102041Z 11001KT 09/05 A3032 RMK A01 T00920048  RH  074%=      5-min Rain = 0
KDC1 102042Z 14003KT 09/05 A3032 RMK A01 T00930052  RH  076%=      5-min Rain = 0
KDC1 102043Z 12003KT 10/05 A3032 RMK A01 T00950052  RH  075%=      5-min Rain = 0
KDC1 102044Z 13003KT 10/05 A3032 RMK A01 T00950049  RH  073%=      5-min Rain = 0
KDC1 102045Z 12001KT 10/05 A3032 RMK A01 T00950048  RH  073%=      5-min Rain = 0
KDC1 102046Z 09002KT 10/05 A3032 RMK A01 T00960051  RH  074%=      5-min Rain = 0
KDC1 102047Z 12003KT 10/05 A3032 RMK A01 T00970050  RH  073%=      5-min Rain = 0
KDC1 102048Z 12003KT 10/05 A3032 RMK A01 T00960050  RH  073%=      5-min Rain = 0
KDC1 102049Z 16002KT 10/05 A3032 RMK A01 T00970050  RH  073%=      5-min Rain = 0
KDC1 102050Z 14004KT 10/05 A3032 RMK A01 T00970050  RH  073%=      5-min Rain = 0
KDC1 102051Z 16003KT 10/05 A3032 RMK A01 T00980050  RH  072%=      5-min Rain = 0
KDC1 102052Z 10003KT 10/05 A3032 RMK A01 T00970048  RH  071%=      5-min Rain = 0
KDC1 102053Z 09003KT 10/05 A3032 RMK A01 T00970048  RH  072%=      5-min Rain = 0
KDC1 102054Z 11002KT 10/05 A3032 RMK A01 T00960049  RH  073%=      5-min Rain = 0
KDC1 102055Z 15002KT 10/05 A3032 RMK A01 T00960050  RH  073%=      5-min Rain = 0
KDC1 102056Z 15003KT 10/05 A3032 RMK A01 T00980051  RH  072%=      5-min Rain = 0
KDC1 102057Z 14003KT 10/05 A3032 RMK A01 T00990046  RH  070%=      5-min Rain = 0
KDC1 102058Z 16002KT 10/05 A3032 RMK A01 T00990048  RH  071%=      5-min Rain = 0
KDC1 102059Z 16002KT 10/05 A3032 RMK A01 T00980048  RH  071%=      5-min Rain = 0
KDC1 102100Z 14002KT 10/05 A3032 RMK A01 T00990048  RH  071%=      5-min Rain = 0
KDC1 102101Z 11003KT 10/05 A3032 RMK A01 T01000050  RH  071%=      5-min Rain = 0
KDC1 102102Z 12003KT 10/05 A3032 RMK A01 T01010049  RH  070%=      5-min Rain = 0
KDC1 102103Z 12004KT 10/05 A3032 RMK A01 T01000050  RH  071%=      5-min Rain = 0
KDC1 102104Z 11003KT 10/05 A3032 RMK A01 T00990045  RH  069%=      5-min Rain = 0
KDC1 102105Z 16004KT 10/05 A3032 RMK A01 T00990049  RH  071%=      5-min Rain = 0
KDC1 102106Z 16004KT 10/05 A3031 RMK A01 T01000048  RH  070%=      5-min Rain = 0
KDC1 102107Z 16003KT 10/05 A3031 RMK A01 T01010045  RH  068%=      5-min Rain = 0
KDC1 102108Z 15005KT 10/04 A3031 RMK A01 T01020044  RH  068%=      5-min Rain = 0
KDC1 102109Z 15004KT 10/04 A3031 RMK A01 T01020044  RH  067%=      5-min Rain = 0
KDC1 102110Z 15004KT 10/04 A3031 RMK A01 T01020044  RH  068%=      5-min Rain = 0
KDC1 102111Z 15003KT 10/05 A3031 RMK A01 T01020045  RH  068%=      5-min Rain = 0
KDC1 102112Z 14004KT 10/05 A3031 RMK A01 T01020045  RH  068%=      5-min Rain = 0
KDC1 102113Z 16002KT 10/04 A3031 RMK A01 T01020044  RH  067%=      5-min Rain = 0
KDC1 102114Z 18002KT 10/04 A3031 RMK A01 T01010039  RH  065%=      5-min Rain = 0
KDC1 102115Z 18003KT 10/04 A3031 RMK A01 T01020038  RH  065%=      5-min Rain = 0
KDC1 102116Z 17002KT 10/04 A3031 RMK A01 T01020041  RH  066%=      5-min Rain = 0
KDC1 102117Z 16004KT 10/04 A3031 RMK A01 T01030044  RH  067%=      5-min Rain = 0
KDC1 102118Z 16003KT 10/05 A3031 RMK A01 T01030046  RH  068%=      5-min Rain = 0
KDC1 102119Z 16003KT 10/04 A3031 RMK A01 T01030044  RH  067%=      5-min Rain = 0
KDC1 102120Z 14003KT 10/05 A3031 RMK A01 T01040045  RH  067%=      5-min Rain = 0
KDC1 102121Z 16003KT 10/04 A3031 RMK A01 T01030041  RH  065%=      5-min Rain = 0
KDC1 102122Z 16004KT 10/04 A3031 RMK A01 T01030041  RH  065%=      5-min Rain = 0
KDC1 102123Z 16003KT 10/04 A3031 RMK A01 T01040041  RH  065%=      5-min Rain = 0
KDC1 102124Z 15002KT 11/04 A3031 RMK A01 T01050042  RH  065%=      5-min Rain = 0
KDC1 102125Z 13003KT 11/04 A3031 RMK A01 T01050044  RH  066%=      5-min Rain = 0
KDC1 102126Z 16003KT 11/05 A3031 RMK A01 T01060047  RH  067%=      5-min Rain = 0
KDC1 102127Z 16003KT 11/05 A3031 RMK A01 T01070053  RH  069%=      5-min Rain = 0
KDC1 102128Z 16003KT 11/05 A3031 RMK A01 T01080047  RH  066%=      5-min Rain = 0
KDC1 102129Z 14004KT 11/05 A3031 RMK A01 T01080046  RH  065%=      5-min Rain = 0
KDC1 102130Z 15004KT 11/04 A3031 RMK A01 T01070042  RH  064%=      5-min Rain = 0
KDC1 102131Z 15003KT 11/04 A3031 RMK A01 T01060039  RH  063%=      5-min Rain = 0
KDC1 102132Z 14003KT 11/04 A3031 RMK A01 T01060037  RH  062%=      5-min Rain = 0
KDC1 102133Z 13004KT 11/04 A3031 RMK A01 T01050042  RH  065%=      5-min Rain = 0
KDC1 102134Z 15005KT 11/05 A303 RMK A01 T01060047  RH  067%=      5-min Rain = 0
KDC1 102135Z 14004KT 11/05 A303 RMK A01 T01070045  RH  065%=      5-min Rain = 0
KDC1 102136Z 13003KT 11/04 A303 RMK A01 T01060043  RH  065%=      5-min Rain = 0
KDC1 102137Z 12004KT 11/04 A303 RMK A01 T01060041  RH  064%=      5-min Rain = 0
KDC1 102138Z 14004KT 11/04 A303 RMK A01 T01050044  RH  066%=      5-min Rain = 0
KDC1 102139Z 14004KT 11/05 A303 RMK A01 T01060048  RH  067%=      5-min Rain = 0
KDC1 102140Z 13003KT 11/05 A303 RMK A01 T01070046  RH  066%=      5-min Rain = 0
KDC1 102141Z 13005KT 11/05 A303 RMK A01 T01070046  RH  066%=      5-min Rain = 0
KDC1 102142Z 15004KT 11/05 A303 RMK A01 T01060045  RH  066%=      5-min Rain = 0
KDC1 102143Z 14004KT 11/05 A303 RMK A01 T01060046  RH  066%=      5-min Rain = 0
KDC1 102144Z 13004KT 11/04 A303 RMK A01 T01070044  RH  065%=      5-min Rain = 0
KDC1 102145Z 11004KT 11/04 A303 RMK A01 T01070044  RH  065%=      5-min Rain = 0
KDC1 102146Z 12005KT 11/05 A303 RMK A01 T01070047  RH  066%=      5-min Rain = 0
KDC1 102147Z 13004KT 11/05 A303 RMK A01 T01070045  RH  065%=      5-min Rain = 0
KDC1 102148Z 14004KT 11/05 A303 RMK A01 T01070045  RH  065%=      5-min Rain = 0
KDC1 102149Z 14002KT 11/04 A303 RMK A01 T01060043  RH  065%=      5-min Rain = 0
KDC1 102150Z 12004KT 11/05 A303 RMK A01 T01060046  RH  066%=      5-min Rain = 0
KDC1 102151Z 11004KT 11/04 A303 RMK A01 T01080044  RH  064%=      5-min Rain = 0
KDC1 102152Z 14004KT 11/04 A303 RMK A01 T01070041  RH  064%=      5-min Rain = 0
KDC1 102153Z 15003KT 11/04 A303 RMK A01 T01070043  RH  065%=      5-min Rain = 0
KDC1 102154Z 13003KT 11/05 A303 RMK A01 T01080045  RH  065%=      5-min Rain = 0
KDC1 102155Z 15005KT 11/04 A303 RMK A01 T01090043  RH  064%=      5-min Rain = 0
KDC1 102156Z 15005KT 11/04 A303 RMK A01 T01090038  RH  061%=      5-min Rain = 0
KDC1 102157Z 14004KT 11/04 A303 RMK A01 T01100036  RH  060%=      5-min Rain = 0
KDC1 102158Z 18003KT 11/04 A303 RMK A01 T01100035  RH  060%=      5-min Rain = 0
KDC1 102159Z 17002KT 11/03 A303 RMK A01 T01100034  RH  059%=      5-min Rain = 0
KDC1 102200Z 15003KT 11/03 A303 RMK A01 T01090034  RH  059%=      5-min Rain = 0
KDC1 102201Z 13004KT 11/04 A303 RMK A01 T01100038  RH  061%=      5-min Rain = 0
KDC1 102202Z 14004KT 11/04 A303 RMK A01 T01100039  RH  061%=      5-min Rain = 0
KDC1 102203Z 14004KT 11/04 A303 RMK A01 T01100036  RH  060%=      5-min Rain = 0
KDC1 102204Z 14004KT 11/04 A303 RMK A01 T01090035  RH  060%=      5-min Rain = 0
KDC1 102205Z 14002KT 11/04 A303 RMK A01 T01080037  RH  061%=      5-min Rain = 0
KDC1 102206Z 14004KT 11/04 A303 RMK A01 T01090041  RH  063%=      5-min Rain = 0
KDC1 102207Z 14003KT 11/04 A303 RMK A01 T01100037  RH  061%=      5-min Rain = 0
KDC1 102208Z 13003KT 11/03 A303 RMK A01 T01100034  RH  059%=      5-min Rain = 0
KDC1 102209Z 13003KT 11/03 A303 RMK A01 T01100031  RH  058%=      5-min Rain = 0
KDC1 102210Z 14003KT 11/04 A303 RMK A01 T01090035  RH  060%=      5-min Rain = 0
KDC1 102211Z 15004KT 11/04 A303 RMK A01 T01100036  RH  060%=      5-min Rain = 0
KDC1 102212Z 16004KT 11/03 A303 RMK A01 T01100034  RH  059%=      5-min Rain = 0
KDC1 102213Z 13004KT 11/03 A303 RMK A01 T01100032  RH  059%=      5-min Rain = 0
KDC1 102214Z 14003KT 11/03 A303 RMK A01 T01100034  RH  059%=      5-min Rain = 0
KDC1 102215Z 13003KT 11/03 A303 RMK A01 T01100033  RH  059%=      5-min Rain = 0
KDC1 102216Z 13005KT 11/04 A303 RMK A01 T01100038  RH  061%=      5-min Rain = 0
KDC1 102217Z 15004KT 11/04 A303 RMK A01 T01100039  RH  061%=      5-min Rain = 0
KDC1 102218Z 15003KT 11/04 A303 RMK A01 T01100037  RH  061%=      5-min Rain = 0
KDC1 102219Z 14003KT 11/04 A303 RMK A01 T01100035  RH  060%=      5-min Rain = 0
KDC1 102220Z 13003KT 11/04 A303 RMK A01 T01110038  RH  061%=      5-min Rain = 0
KDC1 102221Z 12005KT 11/04 A303 RMK A01 T01110041  RH  062%=      5-min Rain = 0
KDC1 102222Z 11004KT 11/04 A303 RMK A01 T01120041  RH  062%=      5-min Rain = 0
KDC1 102223Z 12005KT 11/04 A303 RMK A01 T01120044  RH  063%=      5-min Rain = 0
KDC1 102224Z 12005KT 11/05 A303 RMK A01 T01120045  RH  063%=      5-min Rain = 0
KDC1 102225Z 11005KT 11/04 A303 RMK A01 T01120041  RH  061%=      5-min Rain = 0
KDC1 102226Z 11005KT 11/04 A303 RMK A01 T01110037  RH  060%=      5-min Rain = 0
KDC1 102227Z 11005KT 11/04 A303 RMK A01 T01100038  RH  061%=      5-min Rain = 0
KDC1 102228Z 12005KT 11/04 A303 RMK A01 T01110041  RH  062%=      5-min Rain = 0
KDC1 102229Z 12005KT 11/04 A303 RMK A01 T01100041  RH  062%=      5-min Rain = 0
KDC1 102230Z 11005KT 11/04 A303 RMK A01 T01100041  RH  062%=      5-min Rain = 0
KDC1 102231Z 11005KT 11/04 A303 RMK A01 T01100040  RH  062%=      5-min Rain = 0
KDC1 102232Z 12007KT 11/04 A3029 RMK A01 T01110041  RH  062%=      5-min Rain = 0
KDC1 102233Z 12006KT 11/04 A3029 RMK A01 T01100042  RH  063%=      5-min Rain = 0
KDC1 102234Z 11005KT 11/04 A3029 RMK A01 T01100040  RH  062%=      5-min Rain = 0
KDC1 102235Z 12005KT 11/04 A3029 RMK A01 T01100040  RH  062%=      5-min Rain = 0
KDC1 102236Z 12006KT 11/04 A3029 RMK A01 T01110041  RH  062%=      5-min Rain = 0
KDC1 102237Z 12005KT 11/04 A3029 RMK A01 T01100043  RH  063%=      5-min Rain = 0
KDC1 102238Z 11005KT 11/04 A3029 RMK A01 T01100039  RH  062%=      5-min Rain = 0
KDC1 102239Z 11006KT 11/04 A3029 RMK A01 T01100042  RH  063%=      5-min Rain = 0
KDC1 102240Z 12006KT 11/04 A3029 RMK A01 T01100040  RH  062%=      5-min Rain = 0
KDC1 102241Z 11006KT 11/04 A3029 RMK A01 T01100040  RH  062%=      5-min Rain = 0
KDC1 102242Z 10005KT 11/04 A303 RMK A01 T01090039  RH  062%=      5-min Rain = 0
KDC1 102243Z 11005KT 11/04 A303 RMK A01 T01090039  RH  062%=      5-min Rain = 0
KDC1 102244Z 10005KT 11/04 A303 RMK A01 T01090037  RH  061%=      5-min Rain = 0
KDC1 102245Z 11006KT 11/04 A303 RMK A01 T01090036  RH  061%=      5-min Rain = 0
KDC1 102246Z 12006KT 11/04 A3029 RMK A01 T01090038  RH  062%=      5-min Rain = 0
KDC1 102247Z 11006KT 11/04 A3029 RMK A01 T01090041  RH  063%=      5-min Rain = 0
KDC1 102248Z 11005KT 11/04 A3029 RMK A01 T01100040  RH  062%=      5-min Rain = 0
KDC1 102249Z 11005KT 11/04 A3029 RMK A01 T01090039  RH  062%=      5-min Rain = 0
KDC1 102250Z 11005KT 11/04 A3029 RMK A01 T01090037  RH  061%=      5-min Rain = 0
KDC1 102251Z 11005KT 11/04 A3029 RMK A01 T01090037  RH  061%=      5-min Rain = 0
KDC1 102252Z 12005KT 11/04 A3029 RMK A01 T01090040  RH  063%=      5-min Rain = 0
KDC1 102253Z 12005KT 11/04 A3029 RMK A01 T01090040  RH  063%=      5-min Rain = 0
KDC1 102254Z 12005KT 11/04 A303 RMK A01 T01090041  RH  063%=      5-min Rain = 0
KDC1 102255Z 11005KT 11/04 A303 RMK A01 T01080041  RH  063%=      5-min Rain = 0
KDC1 102256Z 11005KT 11/04 A303 RMK A01 T01080038  RH  062%=      5-min Rain = 0
KDC1 102257Z 11005KT 11/04 A303 RMK A01 T01090042  RH  063%=      5-min Rain = 0
KDC1 102258Z 13005KT 11/04 A303 RMK A01 T01080040  RH  063%=      5-min Rain = 0
KDC1 102259Z 12005KT 11/04 A303 RMK A01 T01080042  RH  064%=      5-min Rain = 0
KDC1 102300Z 12005KT 11/04 A3029 RMK A01 T01080042  RH  064%=      5-min Rain = 0
KDC1 102301Z 12005KT 11/04 A3029 RMK A01 T01070041  RH  063%=      5-min Rain = 0
KDC1 102302Z 11005KT 11/04 A3029 RMK A01 T01070039  RH  063%=      5-min Rain = 0
KDC1 102303Z 11005KT 11/04 A3029 RMK A01 T01070038  RH  063%=      5-min Rain = 0
KDC1 102304Z 11005KT 11/04 A3029 RMK A01 T01070040  RH  063%=      5-min Rain = 0
KDC1 102305Z 11005KT 11/04 A3029 RMK A01 T01070040  RH  063%=      5-min Rain = 0
KDC1 102306Z 11005KT 11/04 A3029 RMK A01 T01070040  RH  063%=      5-min Rain = 0
KDC1 102307Z 11005KT 11/04 A3029 RMK A01 T01070041  RH  064%=      5-min Rain = 0
KDC1 102308Z 12005KT 11/04 A3029 RMK A01 T01060041  RH  064%=      5-min Rain = 0
KDC1 102309Z 11005KT 11/04 A3029 RMK A01 T01050041  RH  064%=      5-min Rain = 0
KDC1 102310Z 11004KT 11/04 A3029 RMK A01 T01050042  RH  065%=      5-min Rain = 0
KDC1 102311Z 11004KT 11/04 A3029 RMK A01 T01050044  RH  066%=      5-min Rain = 0
KDC1 102312Z 11004KT 11/05 A3029 RMK A01 T01050045  RH  067%=      5-min Rain = 0
KDC1 102313Z 11005KT 10/05 A3029 RMK A01 T01040045  RH  067%=      5-min Rain = 0
KDC1 102314Z 12005KT 10/05 A3029 RMK A01 T01030046  RH  068%=      5-min Rain = 0
KDC1 102315Z 12005KT 10/05 A3029 RMK A01 T01020047  RH  069%=      5-min Rain = 0
KDC1 102316Z 12005KT 10/05 A3029 RMK A01 T01010048  RH  070%=      5-min Rain = 0
KDC1 102317Z 11004KT 10/05 A3029 RMK A01 T00990048  RH  071%=      5-min Rain = 0
KDC1 102318Z 11004KT 10/05 A3029 RMK A01 T00980048  RH  071%=      5-min Rain = 0
KDC1 102319Z 11005KT 10/05 A3029 RMK A01 T00980048  RH  071%=      5-min Rain = 0
KDC1 102320Z 12005KT 10/05 A3029 RMK A01 T00970048  RH  071%=      5-min Rain = 0
KDC1 102321Z 12005KT 10/05 A3029 RMK A01 T00970047  RH  071%=      5-min Rain = 0
KDC1 102322Z 12005KT 10/05 A3029 RMK A01 T00960047  RH  071%=      5-min Rain = 0
KDC1 102323Z 12005KT 09/05 A3029 RMK A01 T00940047  RH  072%=      5-min Rain = 0
KDC1 102324Z 11006KT 09/05 A3029 RMK A01 T00930047  RH  073%=      5-min Rain = 0
KDC1 102325Z 11005KT 09/05 A3029 RMK A01 T00920046  RH  073%=      5-min Rain = 0
KDC1 102326Z 11005KT 09/05 A3029 RMK A01 T00900045  RH  073%=      5-min Rain = 0
KDC1 102327Z 12005KT 09/05 A3029 RMK A01 T00890045  RH  074%=      5-min Rain = 0
KDC1 102328Z 12005KT 09/05 A3029 RMK A01 T00880045  RH  074%=      5-min Rain = 0
KDC1 102329Z 12005KT 09/05 A3029 RMK A01 T00870045  RH  075%=      5-min Rain = 0
KDC1 102330Z 12005KT 09/04 A3029 RMK A01 T00860044  RH  075%=      5-min Rain = 0
KDC1 102331Z 12004KT 08/04 A3029 RMK A01 T00840044  RH  076%=      5-min Rain = 0
KDC1 102332Z 12004KT 08/04 A3029 RMK A01 T00830044  RH  076%=      5-min Rain = 0
KDC1 102333Z 11004KT 08/04 A3029 RMK A01 T00830043  RH  076%=      5-min Rain = 0
KDC1 102334Z 11004KT 08/04 A3029 RMK A01 T00820043  RH  076%=      5-min Rain = 0
KDC1 102335Z 11005KT 08/04 A3029 RMK A01 T00830044  RH  076%=      5-min Rain = 0
KDC1 102336Z 11005KT 08/04 A3029 RMK A01 T00830044  RH  077%=      5-min Rain = 0
KDC1 102337Z 11004KT 08/05 A3029 RMK A01 T00840045  RH  076%=      5-min Rain = 0
KDC1 102338Z 11005KT 09/05 A3029 RMK A01 T00850046  RH  076%=      5-min Rain = 0
KDC1 102339Z 11005KT 09/05 A3029 RMK A01 T00850046  RH  076%=      5-min Rain = 0
KDC1 102340Z 12005KT 08/05 A3029 RMK A01 T00840045  RH  077%=      5-min Rain = 0
KDC1 102341Z 12005KT 08/04 A3029 RMK A01 T00810043  RH  077%=      5-min Rain = 0
KDC1 102342Z 12005KT 08/04 A3029 RMK A01 T00790043  RH  078%=      5-min Rain = 0
KDC1 102343Z 12004KT 08/04 A3029 RMK A01 T00780043  RH  078%=      5-min Rain = 0
KDC1 102344Z 12004KT 08/04 A3029 RMK A01 T00780043  RH  079%=      5-min Rain = 0
KDC1 102345Z 12004KT 08/04 A3029 RMK A01 T00780043  RH  078%=      5-min Rain = 0
KDC1 102346Z 12004KT 08/04 A3029 RMK A01 T00770041  RH  078%=      5-min Rain = 0
KDC1 102347Z 11004KT 08/04 A3029 RMK A01 T00770042  RH  078%=      5-min Rain = 0
KDC1 102348Z 12004KT 08/04 A3029 RMK A01 T00760042  RH  079%=      5-min Rain = 0
KDC1 102349Z 12004KT 08/04 A3029 RMK A01 T00750042  RH  080%=      5-min Rain = 0
KDC1 102350Z 12004KT 07/04 A3029 RMK A01 T00740042  RH  080%=      5-min Rain = 0
KDC1 102351Z 12004KT 07/04 A3029 RMK A01 T00730041  RH  080%=      5-min Rain = 0
KDC1 102352Z 12004KT 07/04 A3029 RMK A01 T00730041  RH  080%=      5-min Rain = 0
KDC1 102353Z 12004KT 07/04 A3029 RMK A01 T00730041  RH  080%=      5-min Rain = 0
KDC1 102354Z 12004KT 07/04 A3029 RMK A01 T00730040  RH  080%=      5-min Rain = 0
KDC1 102355Z 11005KT 07/04 A3029 RMK A01 T00740040  RH  079%=      5-min Rain = 0
KDC1 102356Z 11005KT 07/04 A3029 RMK A01 T00730039  RH  079%=      5-min Rain = 0
KDC1 102357Z 11004KT 07/04 A3029 RMK A01 T00730039  RH  079%=      5-min Rain = 0
KDC1 102358Z 11004KT 07/04 A3029 RMK A01 T00730039  RH  079%=      5-min Rain = 0
KDC1 102359Z 12005KT 07/04 A3029 RMK A01 T00720038  RH  079%=      5-min Rain = 0
KDC1 110000Z 12005KT 07/04 A3029 RMK A01 T00710037  RH  079%=      5-min Rain = 0
KDC1 110001Z 12005KT 07/04 A3029 RMK A01 T00700036  RH  079%=      5-min Rain = 0
KDC1 110002Z 12004KT 07/04 A3029 RMK A01 T00700036  RH  079%=      5-min Rain = 0
KDC1 110003Z 13004KT 07/04 A3029 RMK A01 T00690037  RH  080%=      5-min Rain = 0
KDC1 110004Z 13003KT 07/04 A3029 RMK A01 T00700037  RH  080%=      5-min Rain = 0
KDC1 110005Z 13004KT 07/04 A3029 RMK A01 T00700037  RH  080%=      5-min Rain = 0
KDC1 110006Z 13004KT 07/04 A3029 RMK A01 T00700037  RH  080%=      5-min Rain = 0
KDC1 110007Z 13004KT 07/04 A3029 RMK A01 T00700038  RH  080%=      5-min Rain = 0
KDC1 110008Z 13004KT 07/04 A3029 RMK A01 T00700038  RH  080%=      5-min Rain = 0
KDC1 110009Z 14004KT 07/04 A3029 RMK A01 T00710038  RH  079%=      5-min Rain = 0
KDC1 110010Z 14004KT 07/04 A3029 RMK A01 T00720037  RH  079%=      5-min Rain = 0
KDC1 110011Z 14004KT 07/04 A3029 RMK A01 T00720036  RH  077%=      5-min Rain = 0
KDC1 110012Z 14004KT 07/04 A3029 RMK A01 T00720035  RH  077%=      5-min Rain = 0
KDC1 110013Z 13004KT 07/03 A3029 RMK A01 T00720034  RH  077%=      5-min Rain = 0
KDC1 110014Z 13004KT 07/03 A3029 RMK A01 T00720034  RH  077%=      5-min Rain = 0
KDC1 110015Z 13004KT 07/03 A3029 RMK A01 T00710034  RH  077%=      5-min Rain = 0
KDC1 110016Z 13004KT 07/03 A3029 RMK A01 T00710034  RH  077%=      5-min Rain = 0
KDC1 110017Z 12004KT 07/03 A3029 RMK A01 T00710034  RH  077%=      5-min Rain = 0
KDC1 110018Z 12004KT 07/03 A3029 RMK A01 T00710034  RH  077%=      5-min Rain = 0
KDC1 110019Z 12004KT 07/03 A3029 RMK A01 T00700033  RH  077%=      5-min Rain = 0
KDC1 110020Z 13003KT 07/03 A3029 RMK A01 T00690033  RH  078%=      5-min Rain = 0
KDC1 110021Z 13003KT 07/03 A3029 RMK A01 T00680033  RH  078%=      5-min Rain = 0
KDC1 110022Z 13003KT 07/03 A3029 RMK A01 T00670033  RH  079%=      5-min Rain = 0
KDC1 110023Z 13003KT 07/03 A3029 RMK A01 T00670034  RH  079%=      5-min Rain = 0
KDC1 110024Z 13003KT 07/03 A3029 RMK A01 T00670034  RH  080%=      5-min Rain = 0
KDC1 110025Z 13003KT 07/04 A3029 RMK A01 T00670035  RH  080%=      5-min Rain = 0
KDC1 110026Z 13003KT 07/03 A3029 RMK A01 T00670034  RH  080%=      5-min Rain = 0
KDC1 110027Z 13003KT 07/04 A3029 RMK A01 T00670035  RH  080%=      5-min Rain = 0
KDC1 110028Z 13003KT 07/04 A3029 RMK A01 T00670035  RH  080%=      5-min Rain = 0
KDC1 110029Z 13003KT 07/03 A3029 RMK A01 T00660034  RH  080%=      5-min Rain = 0
KDC1 110030Z 13003KT 07/03 A3029 RMK A01 T00650034  RH  080%=      5-min Rain = 0
KDC1 110031Z 14003KT 07/03 A3029 RMK A01 T00650034  RH  081%=      5-min Rain = 0
KDC1 110032Z 15003KT 07/04 A3029 RMK A01 T00650035  RH  081%=      5-min Rain = 0
KDC1 110033Z 15003KT 07/04 A3029 RMK A01 T00660035  RH  081%=      5-min Rain = 0
KDC1 110034Z 15003KT 07/04 A3029 RMK A01 T00670036  RH  081%=      5-min Rain = 0
KDC1 110035Z 15003KT 07/04 A3029 RMK A01 T00670037  RH  081%=      5-min Rain = 0
KDC1 110036Z 15003KT 07/04 A3029 RMK A01 T00680037  RH  081%=      5-min Rain = 0
KDC1 110037Z 15003KT 07/04 A3029 RMK A01 T00680037  RH  081%=      5-min Rain = 0
KDC1 110038Z 15003KT 07/04 A3029 RMK A01 T00700038  RH  080%=      5-min Rain = 0
KDC1 110039Z 15003KT 07/04 A3029 RMK A01 T00710038  RH  079%=      5-min Rain = 0
KDC1 110040Z 16003KT 07/04 A3029 RMK A01 T00710037  RH  079%=      5-min Rain = 0
KDC1 110041Z 16003KT 07/04 A3029 RMK A01 T00720037  RH  078%=      5-min Rain = 0
KDC1 110042Z 16003KT 07/04 A3029 RMK A01 T00720037  RH  078%=      5-min Rain = 0
KDC1 110043Z 15004KT 07/04 A3029 RMK A01 T00720037  RH  078%=      5-min Rain = 0
KDC1 110044Z 15003KT 07/04 A3029 RMK A01 T00720035  RH  078%=      5-min Rain = 0
KDC1 110045Z 15003KT 07/04 A3029 RMK A01 T00720035  RH  078%=      5-min Rain = 0
KDC1 110046Z 15003KT 07/04 A3029 RMK A01 T00710036  RH  078%=      5-min Rain = 0
KDC1 110047Z 15003KT 07/04 A3029 RMK A01 T00710037  RH  079%=      5-min Rain = 0
KDC1 110048Z 16003KT 07/04 A3029 RMK A01 T00710037  RH  079%=      5-min Rain = 0
KDC1 110049Z 17003KT 07/04 A3029 RMK A01 T00700037  RH  079%=      5-min Rain = 0
KDC1 110050Z 18003KT 07/04 A3029 RMK A01 T00710037  RH  079%=      5-min Rain = 0
KDC1 110051Z 18003KT 07/04 A3029 RMK A01 T00700037  RH  079%=      5-min Rain = 0
KDC1 110052Z 18002KT 07/04 A3029 RMK A01 T00700037  RH  079%=      5-min Rain = 0
KDC1 110053Z 17002KT 07/04 A3029 RMK A01 T00700037  RH  079%=      5-min Rain = 0
KDC1 110054Z 17002KT 07/04 A3029 RMK A01 T00700036  RH  079%=      5-min Rain = 0
KDC1 110055Z 17002KT 07/04 A3029 RMK A01 T00690036  RH  080%=      5-min Rain = 0
KDC1 110056Z 17003KT 07/04 A3029 RMK A01 T00680036  RH  080%=      5-min Rain = 0
KDC1 110057Z 17003KT 07/04 A3029 RMK A01 T00670035  RH  080%=      5-min Rain = 0
KDC1 110058Z 17002KT 07/03 A3029 RMK A01 T00660034  RH  080%=      5-min Rain = 0
KDC1 110059Z 18003KT 07/03 A3029 RMK A01 T00660033  RH  080%=      5-min Rain = 0
KDC1 110100Z 18003KT 07/03 A3029 RMK A01 T00650034  RH  080%=      5-min Rain = 0
KDC1 110101Z 17003KT 07/03 A3029 RMK A01 T00650033  RH  080%=      5-min Rain = 0
KDC1 110102Z 18003KT 07/03 A3029 RMK A01 T00650032  RH  080%=      5-min Rain = 0
KDC1 110103Z 18003KT 07/03 A3029 RMK A01 T00650032  RH  079%=      5-min Rain = 0
KDC1 110104Z 18003KT 07/03 A3029 RMK A01 T00660032  RH  079%=      5-min Rain = 0
KDC1 110105Z 18003KT 07/03 A3029 RMK A01 T00660032  RH  078%=      5-min Rain = 0
KDC1 110106Z 19002KT 07/03 A3029 RMK A01 T00670031  RH  078%=      5-min Rain = 0
KDC1 110107Z 19002KT 07/03 A3029 RMK A01 T00670031  RH  078%=      5-min Rain = 0
KDC1 110108Z 19003KT 07/03 A3029 RMK A01 T00670031  RH  078%=      5-min Rain = 0
KDC1 110109Z 19002KT 07/03 A3029 RMK A01 T00650032  RH  079%=      5-min Rain = 0
KDC1 110110Z 19002KT 06/03 A3029 RMK A01 T00620033  RH  082%=      5-min Rain = 0
KDC1 110111Z 19002KT 06/03 A303 RMK A01 T00570032  RH  083%=      5-min Rain = 0
KDC1 110112Z 19002KT 06/03 A303 RMK A01 T00550032  RH  085%=      5-min Rain = 0
KDC1 110113Z 19003KT 05/03 A303 RMK A01 T00540031  RH  086%=      5-min Rain = 0
KDC1 110114Z 19002KT 05/03 A303 RMK A01 T00520031  RH  086%=      5-min Rain = 0
KDC1 110115Z 19003KT 05/03 A303 RMK A01 T00510031  RH  087%=      5-min Rain = 0
KDC1 110116Z 20002KT 05/03 A303 RMK A01 T00510032  RH  087%=      5-min Rain = 0
KDC1 110117Z 20002KT 05/03 A303 RMK A01 T00510032  RH  087%=      5-min Rain = 0
KDC1 110118Z 20002KT 05/03 A303 RMK A01 T00510031  RH  087%=      5-min Rain = 0
KDC1 110119Z 22002KT 05/03 A303 RMK A01 T00510030  RH  086%=      5-min Rain = 0
KDC1 110120Z 22002KT 05/03 A303 RMK A01 T00530029  RH  085%=      5-min Rain = 0
KDC1 110121Z 22002KT 05/03 A303 RMK A01 T00530029  RH  084%=      5-min Rain = 0
KDC1 110122Z 23003KT 05/03 A303 RMK A01 T00530028  RH  084%=      5-min Rain = 0
KDC1 110123Z 24003KT 05/03 A303 RMK A01 T00540028  RH  083%=      5-min Rain = 0
KDC1 110124Z 25003KT 05/03 A303 RMK A01 T00530029  RH  084%=      5-min Rain = 0
KDC1 110125Z 26003KT 05/03 A303 RMK A01 T00520030  RH  085%=      5-min Rain = 0
KDC1 110126Z 26004KT 05/03 A303 RMK A01 T00500028  RH  086%=      5-min Rain = 0
KDC1 110127Z 27004KT 05/03 A303 RMK A01 T00480027  RH  086%=      5-min Rain = 0
KDC1 110128Z 27004KT 05/03 A303 RMK A01 T00460026  RH  087%=      5-min Rain = 0
KDC1 110129Z 28003KT 05/03 A303 RMK A01 T00450026  RH  088%=      5-min Rain = 0
KDC1 110130Z 28003KT 04/03 A303 RMK A01 T00430025  RH  088%=      5-min Rain = 0
KDC1 110131Z 28004KT 04/03 A303 RMK A01 T00420025  RH  089%=      5-min Rain = 0
KDC1 110132Z 27004KT 04/03 A303 RMK A01 T00420025  RH  089%=      5-min Rain = 0
KDC1 110133Z 27005KT 04/03 A303 RMK A01 T00410025  RH  089%=      5-min Rain = 0
KDC1 110134Z 27005KT 04/03 A303 RMK A01 T00410025  RH  090%=      5-min Rain = 0
KDC1 110135Z 27005KT 04/03 A303 RMK A01 T00410025  RH  090%=      5-min Rain = 0
KDC1 110136Z 28004KT 04/03 A303 RMK A01 T00410025  RH  090%=      5-min Rain = 0
KDC1 110137Z 28004KT 04/03 A303 RMK A01 T00410026  RH  090%=      5-min Rain = 0
KDC1 110138Z 27004KT 04/03 A303 RMK A01 T00410025  RH  090%=      5-min Rain = 0
KDC1 110139Z 28004KT 04/03 A303 RMK A01 T00410026  RH  090%=      5-min Rain = 0
KDC1 110140Z 28004KT 04/03 A303 RMK A01 T00410025  RH  090%=      5-min Rain = 0
KDC1 110141Z 28005KT 04/03 A303 RMK A01 T00410025  RH  089%=      5-min Rain = 0
KDC1 110142Z 28004KT 04/03 A303 RMK A01 T00410025  RH  089%=      5-min Rain = 0
KDC1 110143Z 28004KT 04/03 A303 RMK A01 T00410025  RH  089%=      5-min Rain = 0
KDC1 110144Z 28004KT 04/03 A303 RMK A01 T00410025  RH  089%=      5-min Rain = 0
KDC1 110145Z 28004KT 04/03 A303 RMK A01 T00410025  RH  090%=      5-min Rain = 0
KDC1 110146Z 29004KT 04/03 A303 RMK A01 T00410026  RH  090%=      5-min Rain = 0
KDC1 110147Z 28004KT 04/03 A303 RMK A01 T00410026  RH  090%=      5-min Rain = 0
KDC1 110148Z 28004KT 04/03 A303 RMK A01 T00410026  RH  090%=      5-min Rain = 0
KDC1 110149Z 28004KT 04/03 A303 RMK A01 T00410026  RH  090%=      5-min Rain = 0
KDC1 110150Z 28004KT 04/03 A303 RMK A01 T00410026  RH  090%=      5-min Rain = 0
KDC1 110151Z 28004KT 04/03 A303 RMK A01 T00410026  RH  090%=      5-min Rain = 0
KDC1 110152Z 28004KT 04/03 A3031 RMK A01 T00410027  RH  090%=      5-min Rain = 0
KDC1 110153Z 28004KT 04/03 A3031 RMK A01 T00410026  RH  090%=      5-min Rain = 0
KDC1 110154Z 28004KT 04/03 A3031 RMK A01 T00410026  RH  090%=      5-min Rain = 0
KDC1 110155Z 28004KT 04/03 A3031 RMK A01 T00410027  RH  090%=      5-min Rain = 0
KDC1 110156Z 28004KT 04/03 A3031 RMK A01 T00410026  RH  090%=      5-min Rain = 0
KDC1 110157Z 28004KT 04/03 A3031 RMK A01 T00410026  RH  090%=      5-min Rain = 0
KDC1 110158Z 28004KT 04/03 A3031 RMK A01 T00410026  RH  090%=      5-min Rain = 0
KDC1 110159Z 28004KT 04/03 A3031 RMK A01 T00420026  RH  090%=      5-min Rain = 0
KDC1 110200Z 28005KT 04/03 A3031 RMK A01 T00420026  RH  089%=      5-min Rain = 0
KDC1 110201Z 28004KT 04/03 A3031 RMK A01 T00420026  RH  089%=      5-min Rain = 0
KDC1 110202Z 28004KT 04/03 A3031 RMK A01 T00430025  RH  089%=      5-min Rain = 0
KDC1 110203Z 28004KT 04/03 A3031 RMK A01 T00430025  RH  088%=      5-min Rain = 0
KDC1 110204Z 28004KT 04/03 A3031 RMK A01 T00430025  RH  088%=      5-min Rain = 0
KDC1 110205Z 28004KT 04/02 A3031 RMK A01 T00420024  RH  088%=      5-min Rain = 0
KDC1 110206Z 29004KT 04/02 A3031 RMK A01 T00410023  RH  088%=      5-min Rain = 0
KDC1 110207Z 29004KT 04/02 A3031 RMK A01 T00410023  RH  088%=      5-min Rain = 0
KDC1 110208Z 29004KT 04/02 A3031 RMK A01 T00400023  RH  089%=      5-min Rain = 0
KDC1 110209Z 29005KT 04/02 A3031 RMK A01 T00400023  RH  089%=      5-min Rain = 0
KDC1 110210Z 29005KT 04/02 A3031 RMK A01 T00390023  RH  089%=      5-min Rain = 0
KDC1 110211Z 29005KT 04/02 A3031 RMK A01 T00380022  RH  089%=      5-min Rain = 0
KDC1 110212Z 29005KT 04/02 A3031 RMK A01 T00370022  RH  090%=      5-min Rain = 0
KDC1 110213Z 29005KT 04/02 A3031 RMK A01 T00370022  RH  090%=      5-min Rain = 0
KDC1 110214Z 29005KT 04/02 A3031 RMK A01 T00370022  RH  090%=      5-min Rain = 0
KDC1 110215Z 29005KT 04/02 A3031 RMK A01 T00360022  RH  090%=      5-min Rain = 0
KDC1 110216Z 29004KT 04/02 A3031 RMK A01 T00360022  RH  091%=      5-min Rain = 0
KDC1 110217Z 29004KT 04/02 A3031 RMK A01 T00360022  RH  091%=      5-min Rain = 0
KDC1 110218Z 30004KT 04/02 A3031 RMK A01 T00350022  RH  091%=      5-min Rain = 0
KDC1 110219Z 30005KT 04/02 A3031 RMK A01 T00350022  RH  091%=      5-min Rain = 0
KDC1 110220Z 29005KT 04/02 A3031 RMK A01 T00350023  RH  092%=      5-min Rain = 0
KDC1 110221Z 29005KT 04/02 A3031 RMK A01 T00350023  RH  092%=      5-min Rain = 0
KDC1 110222Z 29004KT 03/02 A3031 RMK A01 T00340022  RH  092%=      5-min Rain = 0
KDC1 110223Z 29004KT 03/02 A3031 RMK A01 T00340022  RH  092%=      5-min Rain = 0
KDC1 110224Z 29004KT 03/02 A3031 RMK A01 T00340022  RH  092%=      5-min Rain = 0
KDC1 110225Z 29004KT 03/02 A3031 RMK A01 T00340023  RH  092%=      5-min Rain = 0
KDC1 110226Z 29005KT 03/02 A3031 RMK A01 T00340023  RH  092%=      5-min Rain = 0
KDC1 110227Z 30005KT 03/02 A3031 RMK A01 T00340023  RH  092%=      5-min Rain = 0
KDC1 110228Z 30005KT 03/02 A3031 RMK A01 T00340023  RH  093%=      5-min Rain = 0
KDC1 110229Z 30005KT 03/02 A3031 RMK A01 T00340023  RH  093%=      5-min Rain = 0
KDC1 110230Z 30005KT 03/02 A3031 RMK A01 T00340023  RH  092%=      5-min Rain = 0
KDC1 110231Z 30005KT 03/02 A3031 RMK A01 T00340023  RH  092%=      5-min Rain = 0
KDC1 110232Z 29005KT 03/02 A3031 RMK A01 T00330022  RH  092%=      5-min Rain = 0
KDC1 110233Z 29004KT 03/02 A3031 RMK A01 T00330022  RH  092%=      5-min Rain = 0
KDC1 110234Z 29005KT 03/02 A3031 RMK A01 T00330022  RH  093%=      5-min Rain = 0
KDC1 110235Z 29005KT 03/02 A3031 RMK A01 T00320022  RH  093%=      5-min Rain = 0
KDC1 110236Z 30005KT 03/02 A3031 RMK A01 T00320022  RH  093%=      5-min Rain = 0
KDC1 110237Z 30005KT 03/02 A3031 RMK A01 T00330022  RH  093%=      5-min Rain = 0
KDC1 110238Z 30004KT 03/02 A3031 RMK A01 T00320022  RH  093%=      5-min Rain = 0
KDC1 110239Z 30005KT 03/02 A3031 RMK A01 T00320022  RH  093%=      5-min Rain = 0
KDC1 110240Z 30005KT 03/02 A3031 RMK A01 T00320022  RH  093%=      5-min Rain = 0
KDC1 110241Z 29004KT 03/02 A3031 RMK A01 T00320022  RH  093%=      5-min Rain = 0
KDC1 110242Z 29004KT 03/02 A3031 RMK A01 T00320022  RH  093%=      5-min Rain = 0
KDC1 110243Z 29004KT 03/02 A3031 RMK A01 T00310022  RH  093%=      5-min Rain = 0
KDC1 110244Z 29004KT 03/02 A3031 RMK A01 T00310022  RH  093%=      5-min Rain = 0
KDC1 110245Z 30004KT 03/02 A3031 RMK A01 T00320022  RH  094%=      5-min Rain = 0
KDC1 110246Z 30004KT 03/02 A3031 RMK A01 T00320022  RH  094%=      5-min Rain = 0
KDC1 110247Z 31004KT 03/02 A3031 RMK A01 T00320022  RH  094%=      5-min Rain = 0
KDC1 110248Z 31003KT 03/02 A3031 RMK A01 T00320022  RH  094%=      5-min Rain = 0
KDC1 110249Z 31003KT 03/02 A3031 RMK A01 T00320023  RH  094%=      5-min Rain = 0
KDC1 110250Z 31003KT 03/02 A303 RMK A01 T00320022  RH  093%=      5-min Rain = 0
KDC1 110251Z 31003KT 03/02 A303 RMK A01 T00320022  RH  093%=      5-min Rain = 0
KDC1 110252Z 32003KT 03/02 A303 RMK A01 T00310021  RH  094%=      5-min Rain = 0
KDC1 110253Z 32003KT 03/02 A303 RMK A01 T00310022  RH  094%=      5-min Rain = 0
KDC1 110254Z 33003KT 03/02 A303 RMK A01 T00310022  RH  094%=      5-min Rain = 0
KDC1 110255Z 34003KT 03/02 A3031 RMK A01 T00310021  RH  094%=      5-min Rain = 0
KDC1 110256Z 33003KT 03/02 A3031 RMK A01 T00310022  RH  094%=      5-min Rain = 0
KDC1 110257Z 33003KT 03/02 A3031 RMK A01 T00310022  RH  094%=      5-min Rain = 0
KDC1 110258Z 33003KT 03/02 A3031 RMK A01 T00310022  RH  094%=      5-min Rain = 0
KDC1 110259Z 33003KT 03/02 A3031 RMK A01 T00310022  RH  094%=      5-min Rain = 0
KDC1 110300Z 33003KT 03/02 A3031 RMK A01 T00310022  RH  094%=      5-min Rain = 0
KDC1 110301Z 33003KT 03/02 A303 RMK A01 T00310023  RH  094%=      5-min Rain = 0
KDC1 110302Z 33003KT 03/02 A3031 RMK A01 T00310022  RH  094%=      5-min Rain = 0
KDC1 110303Z 33003KT 03/02 A3031 RMK A01 T00310022  RH  094%=      5-min Rain = 0
KDC1 110304Z 33002KT 03/02 A3031 RMK A01 T00300020  RH  093%=      5-min Rain = 0
KDC1 110305Z 33002KT 03/02 A3031 RMK A01 T00290019  RH  093%=      5-min Rain = 0
KDC1 110306Z 32002KT 03/02 A3031 RMK A01 T00280018  RH  093%=      5-min Rain = 0
KDC1 110307Z 32002KT 03/02 A3031 RMK A01 T00260016  RH  093%=      5-min Rain = 0
KDC1 110308Z 32002KT 03/02 A3031 RMK A01 T00250015  RH  093%=      5-min Rain = 0
KDC1 110309Z 33002KT 03/02 A3031 RMK A01 T00250015  RH  094%=      5-min Rain = 0
KDC1 110310Z 33002KT 03/02 A303 RMK A01 T00250016  RH  094%=      5-min Rain = 0
KDC1 110311Z 33002KT 02/02 A303 RMK A01 T00240016  RH  094%=      5-min Rain = 0
KDC1 110312Z 32002KT 02/02 A303 RMK A01 T00240016  RH  094%=      5-min Rain = 0
KDC1 110313Z 32002KT 02/02 A303 RMK A01 T00240016  RH  095%=      5-min Rain = 0
KDC1 110314Z 32002KT 03/02 A303 RMK A01 T00250017  RH  095%=      5-min Rain = 0
KDC1 110315Z 32002KT 03/02 A303 RMK A01 T00260019  RH  095%=      5-min Rain = 0
KDC1 110316Z 32002KT 03/02 A303 RMK A01 T00270020  RH  095%=      5-min Rain = 0
KDC1 110317Z 32003KT 03/02 A303 RMK A01 T00270020  RH  095%=      5-min Rain = 0
KDC1 110318Z 32003KT 03/02 A303 RMK A01 T00270020  RH  095%=      5-min Rain = 0
KDC1 110319Z 32003KT 03/02 A303 RMK A01 T00280020  RH  095%=      5-min Rain = 0
KDC1 110320Z 32003KT 03/02 A303 RMK A01 T00270019  RH  095%=      5-min Rain = 0
KDC1 110321Z 32002KT 03/02 A303 RMK A01 T00270019  RH  095%=      5-min Rain = 0
KDC1 110322Z 32002KT 03/02 A303 RMK A01 T00270019  RH  095%=      5-min Rain = 0
KDC1 110323Z 31003KT 03/02 A303 RMK A01 T00270019  RH  095%=      5-min Rain = 0
KDC1 110324Z 32003KT 03/02 A303 RMK A01 T00260018  RH  095%=      5-min Rain = 0
KDC1 110325Z 32004KT 03/02 A303 RMK A01 T00250017  RH  094%=      5-min Rain = 0
KDC1 110326Z 32004KT 03/02 A303 RMK A01 T00250016  RH  094%=      5-min Rain = 0
KDC1 110327Z 32004KT 02/02 A303 RMK A01 T00240015  RH  094%=      5-min Rain = 0
KDC1 110328Z 33005KT 02/02 A303 RMK A01 T00230015  RH  094%=      5-min Rain = 0
KDC1 110329Z 33005KT 02/02 A303 RMK A01 T00230015  RH  095%=      5-min Rain = 0
KDC1 110330Z 32005KT 02/02 A303 RMK A01 T00240016  RH  095%=      5-min Rain = 0
KDC1 110331Z 32005KT 02/02 A303 RMK A01 T00240017  RH  095%=      5-min Rain = 0
KDC1 110332Z 32006KT 02/02 A303 RMK A01 T00240017  RH  095%=      5-min Rain = 0
KDC1 110333Z 32006KT 02/02 A303 RMK A01 T00240017  RH  095%=      5-min Rain = 0
KDC1 110334Z 32006KT 02/02 A303 RMK A01 T00230016  RH  095%=      5-min Rain = 0
KDC1 110335Z 32006KT 02/02 A303 RMK A01 T00230016  RH  095%=      5-min Rain = 0
KDC1 110336Z 32007KT 02/02 A303 RMK A01 T00240017  RH  095%=      5-min Rain = 0
KDC1 110337Z 32006KT 03/02 A303 RMK A01 T00250019  RH  095%=      5-min Rain = 0
KDC1 110338Z 32006KT 03/02 A303 RMK A01 T00260020  RH  095%=      5-min Rain = 0
KDC1 110339Z 32007KT 03/02 A303 RMK A01 T00270020  RH  095%=      5-min Rain = 0
KDC1 110340Z 32006KT 03/02 A303 RMK A01 T00280021  RH  095%=      5-min Rain = 0
KDC1 110341Z 32006KT 03/02 A303 RMK A01 T00280021  RH  095%=      5-min Rain = 0
KDC1 110342Z 32005KT 03/02 A303 RMK A01 T00280020  RH  095%=      5-min Rain = 0
KDC1 110343Z 32006KT 03/02 A303 RMK A01 T00280020  RH  095%=      5-min Rain = 0
KDC1 110344Z 32006KT 03/02 A303 RMK A01 T00280020  RH  094%=      5-min Rain = 0
KDC1 110345Z 32006KT 03/02 A303 RMK A01 T00270019  RH  094%=      5-min Rain = 0
KDC1 110346Z 32006KT 03/02 A303 RMK A01 T00260018  RH  094%=      5-min Rain = 0
KDC1 110347Z 31006KT 03/02 A303 RMK A01 T00260018  RH  094%=      5-min Rain = 0
KDC1 110348Z 31005KT 03/02 A303 RMK A01 T00260017  RH  094%=      5-min Rain = 0
KDC1 110349Z 31005KT 03/02 A303 RMK A01 T00250017  RH  094%=      5-min Rain = 0
KDC1 110350Z 31004KT 03/02 A303 RMK A01 T00250016  RH  094%=      5-min Rain = 0
KDC1 110351Z 31005KT 02/02 A303 RMK A01 T00240016  RH  094%=      5-min Rain = 0
KDC1 110352Z 31004KT 02/02 A303 RMK A01 T00230015  RH  094%=      5-min Rain = 0
KDC1 110353Z 31005KT 02/02 A303 RMK A01 T00230015  RH  095%=      5-min Rain = 0
KDC1 110354Z 31005KT 02/01 A303 RMK A01 T00220014  RH  095%=      5-min Rain = 0
KDC1 110355Z 31005KT 02/01 A303 RMK A01 T00220014  RH  095%=      5-min Rain = 0
KDC1 110356Z 31005KT 02/01 A303 RMK A01 T00220014  RH  095%=      5-min Rain = 0
KDC1 110357Z 32005KT 02/02 A303 RMK A01 T00220015  RH  095%=      5-min Rain = 0
KDC1 110358Z 32005KT 02/01 A303 RMK A01 T00210014  RH  095%=      5-min Rain = 0
KDC1 110359Z 32005KT 02/02 A303 RMK A01 T00210015  RH  095%=      5-min Rain = 0
KDC1 110400Z 32005KT 02/02 A303 RMK A01 T00210015  RH  095%=      5-min Rain = 0
KDC1 110401Z 32005KT 02/02 A303 RMK A01 T00210015  RH  095%=      5-min Rain = 0
KDC1 110402Z 32005KT 02/01 A303 RMK A01 T00210014  RH  095%=      5-min Rain = 0
KDC1 110403Z 32005KT 02/01 A303 RMK A01 T00210014  RH  095%=      5-min Rain = 0
KDC1 110404Z 32005KT 02/01 A303 RMK A01 T00200013  RH  095%=      5-min Rain = 0
KDC1 110405Z 32005KT 02/01 A303 RMK A01 T00200013  RH  095%=      5-min Rain = 0
KDC1 110406Z 32005KT 02/01 A303 RMK A01 T00200013  RH  095%=      5-min Rain = 0
KDC1 110407Z 32005KT 02/01 A303 RMK A01 T00190013  RH  095%=      5-min Rain = 0
KDC1 110408Z 32005KT 02/01 A303 RMK A01 T00190013  RH  096%=      5-min Rain = 0
KDC1 110409Z 31005KT 02/01 A303 RMK A01 T00190013  RH  096%=      5-min Rain = 0
KDC1 110410Z 31005KT 02/01 A303 RMK A01 T00190013  RH  096%=      5-min Rain = 0
KDC1 110411Z 31005KT 02/01 A303 RMK A01 T00200014  RH  096%=      5-min Rain = 0
KDC1 110412Z 31005KT 02/01 A303 RMK A01 T00200014  RH  096%=      5-min Rain = 0
KDC1 110413Z 31004KT 02/01 A303 RMK A01 T00200014  RH  096%=      5-min Rain = 0
KDC1 110414Z 31004KT 02/02 A303 RMK A01 T00210015  RH  096%=      5-min Rain = 0
KDC1 110415Z 30004KT 02/02 A303 RMK A01 T00210015  RH  096%=      5-min Rain = 0
KDC1 110416Z 30005KT 02/02 A303 RMK A01 T00210016  RH  096%=      5-min Rain = 0
KDC1 110417Z 29004KT 02/02 A303 RMK A01 T00220016  RH  096%=      5-min Rain = 0
KDC1 110418Z 28005KT 02/02 A303 RMK A01 T00220017  RH  096%=      5-min Rain = 0
KDC1 110419Z 28005KT 02/02 A303 RMK A01 T00230017  RH  096%=      5-min Rain = 0
KDC1 110420Z 29005KT 02/02 A303 RMK A01 T00230017  RH  096%=      5-min Rain = 0
KDC1 110421Z 28005KT 02/02 A303 RMK A01 T00230017  RH  096%=      5-min Rain = 0
KDC1 110422Z 29005KT 02/02 A303 RMK A01 T00230017  RH  096%=      5-min Rain = 0
KDC1 110423Z 29005KT 02/02 A303 RMK A01 T00230017  RH  096%=      5-min Rain = 0
KDC1 110424Z 29005KT 02/02 A303 RMK A01 T00230017  RH  096%=      5-min Rain = 0
KDC1 110425Z 29004KT 02/02 A303 RMK A01 T00230017  RH  096%=      5-min Rain = 0
KDC1 110426Z 29004KT 02/02 A303 RMK A01 T00230017  RH  096%=      5-min Rain = 0
KDC1 110427Z 29004KT 02/02 A303 RMK A01 T00230017  RH  096%=      5-min Rain = 0
KDC1 110428Z 29004KT 02/02 A303 RMK A01 T00240018  RH  096%=      5-min Rain = 0
KDC1 110429Z 29004KT 02/02 A303 RMK A01 T00240018  RH  096%=      5-min Rain = 0
KDC1 110430Z 29004KT 03/02 A303 RMK A01 T00250019  RH  096%=      5-min Rain = 0
KDC1 110431Z 29005KT 03/02 A303 RMK A01 T00250019  RH  096%=      5-min Rain = 0
KDC1 110432Z 28005KT 03/02 A3031 RMK A01 T00250020  RH  096%=      5-min Rain = 0
KDC1 110433Z 28005KT 03/02 A3031 RMK A01 T00260020  RH  096%=      5-min Rain = 0
KDC1 110434Z 28005KT 03/02 A3031 RMK A01 T00260020  RH  096%=      5-min Rain = 0
KDC1 110435Z 28005KT 03/02 A3031 RMK A01 T00260020  RH  096%=      5-min Rain = 0
KDC1 110436Z 28005KT 03/02 A3031 RMK A01 T00270020  RH  096%=      5-min Rain = 0
KDC1 110437Z 28005KT 03/02 A3031 RMK A01 T00270020  RH  096%=      5-min Rain = 0
KDC1 110438Z 28005KT 03/02 A303 RMK A01 T00260020  RH  096%=      5-min Rain = 0
KDC1 110439Z 28005KT 03/02 A303 RMK A01 T00270020  RH  095%=      5-min Rain = 0
KDC1 110440Z 28005KT 03/02 A303 RMK A01 T00260020  RH  095%=      5-min Rain = 0
KDC1 110441Z 28005KT 03/02 A303 RMK A01 T00270020  RH  095%=      5-min Rain = 0
KDC1 110442Z 28005KT 03/02 A303 RMK A01 T00270020  RH  095%=      5-min Rain = 0
KDC1 110443Z 28005KT 03/02 A3031 RMK A01 T00270021  RH  095%=      5-min Rain = 0
KDC1 110444Z 28005KT 03/02 A3031 RMK A01 T00280021  RH  095%=      5-min Rain = 0
KDC1 110445Z 28006KT 03/02 A3031 RMK A01 T00280022  RH  095%=      5-min Rain = 0
KDC1 110446Z 29005KT 03/02 A3031 RMK A01 T00290022  RH  095%=      5-min Rain = 0
KDC1 110447Z 29005KT 03/02 A3031 RMK A01 T00290022  RH  095%=      5-min Rain = 0
KDC1 110448Z 29005KT 03/02 A3031 RMK A01 T00300023  RH  095%=      5-min Rain = 0
KDC1 110449Z 29005KT 03/02 A3031 RMK A01 T00300023  RH  095%=      5-min Rain = 0
KDC1 110450Z 29005KT 03/02 A3031 RMK A01 T00300023  RH  095%=      5-min Rain = 0
KDC1 110451Z 29005KT 03/02 A3031 RMK A01 T00310023  RH  095%=      5-min Rain = 0
KDC1 110452Z 29005KT 03/02 A3031 RMK A01 T00310024  RH  095%=      5-min Rain = 0
KDC1 110453Z 29005KT 03/02 A3031 RMK A01 T00320024  RH  095%=      5-min Rain = 0
KDC1 110454Z 28005KT 03/02 A3031 RMK A01 T00320024  RH  095%=      5-min Rain = 0
KDC1 110455Z 28006KT 03/02 A3031 RMK A01 T00320024  RH  095%=      5-min Rain = 0
KDC1 110456Z 28006KT 03/03 A3031 RMK A01 T00330025  RH  095%=      5-min Rain = 0
KDC1 110457Z 28006KT 03/03 A3031 RMK A01 T00330025  RH  094%=      5-min Rain = 0
KDC1 110458Z 28006KT 03/03 A3031 RMK A01 T00330025  RH  094%=      5-min Rain = 0
KDC1 110459Z 28006KT 03/03 A3031 RMK A01 T00330025  RH  094%=      5-min Rain = 0
KDC1 110500Z 28006KT 03/03 A3031 RMK A01 T00340026  RH  094%=      5-min Rain = 0
KDC1 110501Z 28006KT 03/03 A3031 RMK A01 T00340026  RH  094%=      5-min Rain = 0
KDC1 110502Z 28006KT 03/03 A3031 RMK A01 T00340025  RH  094%=      5-min Rain = 0
KDC1 110503Z 29006KT 03/03 A3031 RMK A01 T00340025  RH  094%=      5-min Rain = 0
KDC1 110504Z 29005KT 03/03 A3031 RMK A01 T00340025  RH  094%=      5-min Rain = 0
KDC1 110505Z 29005KT 03/03 A3031 RMK A01 T00340026  RH  094%=      5-min Rain = 0
KDC1 110506Z 29006KT 04/03 A3031 RMK A01 T00350026  RH  094%=      5-min Rain = 0
KDC1 110507Z 29005KT 04/03 A3031 RMK A01 T00350027  RH  094%=      5-min Rain = 0
KDC1 110508Z 28005KT 04/03 A3031 RMK A01 T00360027  RH  094%=      5-min Rain = 0
KDC1 110509Z 29005KT 04/03 A3031 RMK A01 T00360027  RH  094%=      5-min Rain = 0
KDC1 110510Z 29005KT 04/03 A3031 RMK A01 T00360027  RH  094%=      5-min Rain = 0
KDC1 110511Z 28005KT 04/03 A3031 RMK A01 T00360027  RH  094%=      5-min Rain = 0
KDC1 110512Z 29005KT 04/03 A3031 RMK A01 T00360027  RH  094%=      5-min Rain = 0
KDC1 110513Z 29005KT 04/03 A3031 RMK A01 T00360027  RH  094%=      5-min Rain = 0
KDC1 110514Z 29005KT 04/03 A3031 RMK A01 T00360027  RH  094%=      5-min Rain = 0
KDC1 110515Z 29006KT 04/03 A3031 RMK A01 T00360027  RH  094%=      5-min Rain = 0
KDC1 110516Z 29006KT 04/03 A3031 RMK A01 T00360027  RH  094%=      5-min Rain = 0
KDC1 110517Z 29006KT 04/03 A3031 RMK A01 T00360026  RH  094%=      5-min Rain = 0
KDC1 110518Z 29006KT 04/03 A3031 RMK A01 T00360026  RH  094%=      5-min Rain = 0
KDC1 110519Z 29006KT 04/03 A3031 RMK A01 T00360026  RH  094%=      5-min Rain = 0
KDC1 110520Z 29005KT 04/03 A3031 RMK A01 T00350026  RH  094%=      5-min Rain = 0
KDC1 110521Z 29005KT 04/03 A3031 RMK A01 T00350026  RH  094%=      5-min Rain = 0
KDC1 110522Z 29006KT 04/03 A3031 RMK A01 T00350026  RH  094%=      5-min Rain = 0
KDC1 110523Z 29006KT 04/03 A3031 RMK A01 T00350026  RH  094%=      5-min Rain = 0
KDC1 110524Z 29006KT 04/03 A3031 RMK A01 T00350026  RH  094%=      5-min Rain = 0
KDC1 110525Z 29006KT 04/03 A3031 RMK A01 T00350026  RH  094%=      5-min Rain = 0
KDC1 110526Z 29006KT 04/03 A3031 RMK A01 T00350026  RH  094%=      5-min Rain = 0
KDC1 110527Z 29006KT 04/03 A3031 RMK A01 T00350026  RH  094%=      5-min Rain = 0
KDC1 110528Z 29007KT 04/03 A3031 RMK A01 T00350026  RH  094%=      5-min Rain = 0
KDC1 110529Z 29007KT 04/03 A3031 RMK A01 T00350026  RH  094%=      5-min Rain = 0
KDC1 110530Z 29007KT 04/03 A3031 RMK A01 T00350026  RH  094%=      5-min Rain = 0
KDC1 110531Z 29006KT 04/03 A3031 RMK A01 T00350026  RH  094%=      5-min Rain = 0
KDC1 110532Z 29006KT 04/03 A3031 RMK A01 T00360026  RH  094%=      5-min Rain = 0
KDC1 110533Z 29006KT 04/03 A3031 RMK A01 T00360026  RH  093%=      5-min Rain = 0
KDC1 110534Z 30006KT 04/03 A3031 RMK A01 T00360027  RH  093%=      5-min Rain = 0
KDC1 110535Z 30007KT 04/03 A3031 RMK A01 T00360026  RH  093%=      5-min Rain = 0
KDC1 110536Z 30007KT 04/03 A3031 RMK A01 T00360027  RH  093%=      5-min Rain = 0
KDC1 110537Z 30007KT 04/03 A3031 RMK A01 T00360027  RH  093%=      5-min Rain = 0
KDC1 110538Z 30007KT 04/03 A3031 RMK A01 T00370027  RH  093%=      5-min Rain = 0
KDC1 110539Z 30007KT 04/03 A3031 RMK A01 T00370027  RH  093%=      5-min Rain = 0
KDC1 110540Z 30007KT 04/03 A3031 RMK A01 T00370027  RH  093%=      5-min Rain = 0
KDC1 110541Z 30007KT 04/03 A3031 RMK A01 T00370027  RH  093%=      5-min Rain = 0
KDC1 110542Z 30007KT 04/03 A3031 RMK A01 T00370027  RH  093%=      5-min Rain = 0
KDC1 110543Z 30007KT 04/03 A3031 RMK A01 T00370027  RH  093%=      5-min Rain = 0
KDC1 110544Z 30007KT 04/03 A3031 RMK A01 T00380028  RH  093%=      5-min Rain = 0
KDC1 110545Z 30006KT 04/03 A3031 RMK A01 T00380028  RH  093%=      5-min Rain = 0
KDC1 110546Z 31006KT 04/03 A3031 RMK A01 T00380028  RH  093%=      5-min Rain = 0
KDC1 110547Z 32005KT 04/03 A3031 RMK A01 T00380027  RH  093%=      5-min Rain = 0
KDC1 110548Z 31005KT 04/03 A3031 RMK A01 T00380027  RH  093%=      5-min Rain = 0
KDC1 110549Z 32005KT 04/03 A3031 RMK A01 T00380028  RH  093%=      5-min Rain = 0
KDC1 110550Z 32005KT 04/03 A3031 RMK A01 T00380027  RH  093%=      5-min Rain = 0
KDC1 110551Z 32004KT 04/03 A3031 RMK A01 T00370027  RH  093%=      5-min Rain = 0
KDC1 110552Z 32004KT 04/03 A3031 RMK A01 T00370027  RH  093%=      5-min Rain = 0
KDC1 110553Z 32004KT 04/03 A3031 RMK A01 T00370027  RH  093%=      5-min Rain = 0
KDC1 110554Z 32004KT 04/03 A3031 RMK A01 T00360027  RH  094%=      5-min Rain = 0
KDC1 110555Z 32004KT 04/03 A3031 RMK A01 T00360027  RH  094%=      5-min Rain = 0
KDC1 110556Z 32004KT 04/03 A3031 RMK A01 T00360026  RH  094%=      5-min Rain = 0
KDC1 110557Z 33004KT 04/03 A3031 RMK A01 T00350026  RH  094%=      5-min Rain = 0
KDC1 110558Z 33004KT 04/03 A3031 RMK A01 T00350026  RH  094%=      5-min Rain = 0
KDC1 110559Z 33004KT 03/03 A3031 RMK A01 T00340026  RH  094%=      5-min Rain = 0

Page generated in 0.1464 seconds.